Wetterdaten: Donnerstag, 13.04.2023
Datum Zeit Temp. Aussen Temp. o. S. Temp +5cm Feuchte Auss Luftdruck Regen Sonnenschein Regendauer Solar Windben Empfang
13.04.2023 00:00 5,7 C 5,0 C 1,7 C 93 % 999,1 hPa 0,0 l/m 0 min 0 min 0 W/m 12,9 km/h (3 Bft) 95,74 %
13.04.2023 00:02 5,7 C 5,0 C 1,7 C 93 % 999,1 hPa 0,0 l/m 0 min 0 min 0 W/m 6,4 km/h (2 Bft) 10,00 %
13.04.2023 00:04 5,7 C 5,0 C 1,7 C 92 % 999,0 hPa 0,0 l/m 0 min 0 min 0 W/m 12,9 km/h (3 Bft) 93,18 %
13.04.2023 00:07 5,7 C 5,0 C 1,7 C 92 % 999,0 hPa 0,0 l/m 0 min 0 min 0 W/m 16,1 km/h (3 Bft) 97,22 %
13.04.2023 00:14 5,7 C 5,0 C 1,1 C 92 % 998,9 hPa 0,0 l/m 0 min 0 min 0 W/m 19,3 km/h (3 Bft) 95,12 %
13.04.2023 00:16 5,7 C 5,0 C 1,1 C 92 % 998,8 hPa 0,0 l/m 0 min 0 min 0 W/m 16,1 km/h (3 Bft) 97,87 %
13.04.2023 00:18 5,7 C 5,0 C 1,1 C 92 % 998,8 hPa 0,0 l/m 0 min 0 min 0 W/m 16,1 km/h (3 Bft) 95,65 %
13.04.2023 00:20 5,7 C 5,0 C 1,1 C 92 % 998,8 hPa 0,0 l/m 0 min 0 min 0 W/m 12,9 km/h (3 Bft) 97,87 %
13.04.2023 00:22 5,7 C 5,0 C 1,1 C 92 % 998,8 hPa 0,0 l/m 0 min 0 min 0 W/m 6,4 km/h (2 Bft) 98,18 %
13.04.2023 00:24 5,7 C 5,0 C 1,1 C 92 % 998,7 hPa 0,0 l/m 0 min 0 min 0 W/m 6,4 km/h (2 Bft) 95,74 %
13.04.2023 00:26 5,7 C 5,0 C 1,1 C 92 % 998,7 hPa 0,0 l/m 0 min 0 min 0 W/m 12,9 km/h (3 Bft) 95,74 %
13.04.2023 00:28 5,6 C 5,0 C 1,1 C 92 % 998,7 hPa 0,0 l/m 0 min 0 min 0 W/m 12,9 km/h (3 Bft) 93,62 %
13.04.2023 00:30 5,6 C 5,0 C 1,1 C 92 % 998,7 hPa 0,0 l/m 0 min 0 min 0 W/m 16,1 km/h (3 Bft) 95,74 %
13.04.2023 00:32 5,6 C 5,0 C 1,1 C 91 % 998,7 hPa 0,0 l/m 0 min 0 min 0 W/m 16,1 km/h (3 Bft) 91,67 %
13.04.2023 00:34 5,6 C 5,0 C 1,1 C 91 % 998,7 hPa 0,0 l/m 0 min 0 min 0 W/m 16,1 km/h (3 Bft) 95,74 %
13.04.2023 00:36 5,6 C 5,0 C 1,1 C 91 % 998,7 hPa 0,0 l/m 0 min 0 min 0 W/m 16,1 km/h (3 Bft) 95,83 %
13.04.2023 00:38 5,6 C 5,0 C 1,1 C 91 % 998,7 hPa 0,0 l/m 0 min 0 min 0 W/m 16,1 km/h (3 Bft) 94,44 %
13.04.2023 00:40 5,6 C 5,0 C 1,1 C 91 % 998,7 hPa 0,0 l/m 0 min 0 min 0 W/m 16,1 km/h (3 Bft) 95,74 %
13.04.2023 00:42 5,5 C 5,0 C 1,1 C 91 % 998,7 hPa 0,0 l/m 0 min 0 min 0 W/m 16,1 km/h (3 Bft) 95,74 %
13.04.2023 00:44 5,5 C 5,0 C 1,1 C 91 % 998,7 hPa 0,0 l/m 0 min 0 min 0 W/m 12,9 km/h (3 Bft) 95,65 %
13.04.2023 00:46 5,5 C 5,0 C 1,1 C 91 % 998,7 hPa 0,0 l/m 0 min 0 min 0 W/m 16,1 km/h (3 Bft) 95,74 %
13.04.2023 00:48 5,5 C 5,0 C 1,1 C 91 % 998,7 hPa 0,0 l/m 0 min 0 min 0 W/m 12,9 km/h (3 Bft) 93,62 %
13.04.2023 00:50 5,5 C 5,0 C 1,1 C 91 % 998,7 hPa 0,0 l/m 0 min 0 min 0 W/m 16,1 km/h (3 Bft) 97,87 %
13.04.2023 00:52 5,6 C 5,0 C 1,1 C 91 % 998,6 hPa 0,0 l/m 0 min 0 min 0 W/m 19,3 km/h (3 Bft) 97,87 %
13.04.2023 00:54 5,6 C 5,0 C 1,1 C 91 % 998,6 hPa 0,0 l/m 0 min 0 min 0 W/m 12,9 km/h (3 Bft) 97,87 %
13.04.2023 00:56 5,6 C 5,0 C 1,1 C 91 % 998,5 hPa 0,0 l/m 0 min 0 min 0 W/m 16,1 km/h (3 Bft) 100,00 %
13.04.2023 00:58 5,6 C 5,0 C 1,1 C 91 % 998,5 hPa 0,0 l/m 0 min 0 min 0 W/m 22,5 km/h (4 Bft) 100,00 %
13.04.2023 01:00 5,6 C 5,0 C 1,1 C 91 % 998,4 hPa 0,0 l/m 0 min 0 min 0 W/m 16,1 km/h (3 Bft) 97,87 %
13.04.2023 01:02 5,6 C 5,0 C 1,1 C 91 % 998,4 hPa 0,0 l/m 0 min 0 min 0 W/m 22,5 km/h (4 Bft) 100,00 %
13.04.2023 01:04 5,7 C 5,0 C 1,1 C 91 % 998,3 hPa 0,0 l/m 0 min 0 min 0 W/m 12,9 km/h (3 Bft) 100,00 %
13.04.2023 01:06 5,7 C 5,0 C 1,1 C 90 % 998,4 hPa 0,0 l/m 0 min 0 min 0 W/m 16,1 km/h (3 Bft) 100,00 %
13.04.2023 01:08 5,7 C 5,0 C 1,1 C 90 % 998,4 hPa 0,0 l/m 0 min 0 min 0 W/m 19,3 km/h (3 Bft) 97,83 %
13.04.2023 01:10 5,7 C 5,6 C 1,1 C 90 % 998,4 hPa 0,0 l/m 0 min 0 min 0 W/m 22,5 km/h (4 Bft) 100,00 %
13.04.2023 01:12 5,8 C 5,6 C 1,1 C 90 % 998,3 hPa 0,0 l/m 0 min 0 min 0 W/m 16,1 km/h (3 Bft) 100,00 %
13.04.2023 01:14 5,8 C 5,6 C 1,1 C 90 % 998,4 hPa 0,0 l/m 0 min 0 min 0 W/m 29,0 km/h (5 Bft) 97,87 %
13.04.2023 01:16 5,9 C 5,6 C 1,1 C 89 % 998,3 hPa 0,0 l/m 0 min 0 min 0 W/m 12,9 km/h (3 Bft) 95,74 %
13.04.2023 01:18 5,9 C 5,6 C 1,1 C 89 % 998,3 hPa 0,0 l/m 0 min 0 min 0 W/m 19,3 km/h (3 Bft) 95,74 %
13.04.2023 01:20 5,9 C 5,6 C 1,1 C 89 % 998,3 hPa 0,0 l/m 0 min 0 min 0 W/m 12,9 km/h (3 Bft) 97,83 %
13.04.2023 01:22 6,0 C 5,6 C 1,1 C 89 % 998,2 hPa 0,0 l/m 0 min 0 min 0 W/m 16,1 km/h (3 Bft) 97,87 %
13.04.2023 01:24 6,1 C 6,1 C 1,1 C 89 % 998,1 hPa 0,0 l/m 0 min 0 min 0 W/m 25,7 km/h (4 Bft) 97,87 %
13.04.2023 01:26 6,1 C 6,1 C 1,7 C 89 % 998,1 hPa 0,0 l/m 0 min 0 min 0 W/m 19,3 km/h (3 Bft) 95,74 %
13.04.2023 01:28 6,2 C 6,1 C 1,7 C 89 % 998,0 hPa 0,0 l/m 0 min 0 min 0 W/m 12,9 km/h (3 Bft) 95,74 %
13.04.2023 01:30 6,2 C 6,1 C 1,1 C 89 % 997,9 hPa 0,0 l/m 0 min 0 min 0 W/m 16,1 km/h (3 Bft) 98,11 %
13.04.2023 01:32 6,2 C 6,1 C 1,7 C 88 % 997,9 hPa 0,0 l/m 0 min 0 min 0 W/m 16,1 km/h (3 Bft) 97,87 %
13.04.2023 01:34 6,3 C 6,1 C 1,7 C 88 % 997,9 hPa 0,0 l/m 0 min 0 min 0 W/m 19,3 km/h (3 Bft) 97,87 %
13.04.2023 01:36 6,3 C 6,1 C 1,7 C 88 % 997,9 hPa 0,0 l/m 0 min 0 min 0 W/m 16,1 km/h (3 Bft) 97,83 %
13.04.2023 01:38 6,3 C 6,1 C 1,7 C 88 % 997,9 hPa 0,0 l/m 0 min 0 min 0 W/m 16,1 km/h (3 Bft) 97,87 %
13.04.2023 01:40 6,4 C 6,1 C 1,1 C 88 % 997,9 hPa 0,0 l/m 0 min 0 min 0 W/m 32,2 km/h (5 Bft) 100,00 %
13.04.2023 01:42 6,4 C 6,1 C 1,1 C 88 % 997,9 hPa 0,0 l/m 0 min 0 min 0 W/m 19,3 km/h (3 Bft) 100,00 %
13.04.2023 01:44 6,5 C 6,1 C 1,7 C 87 % 997,8 hPa 0,0 l/m 0 min 0 min 0 W/m 19,3 km/h (3 Bft) 97,87 %
13.04.2023 01:46 6,5 C 6,1 C 1,7 C 87 % 997,9 hPa 0,0 l/m 0 min 0 min 0 W/m 25,7 km/h (4 Bft) 97,87 %
13.04.2023 01:48 6,5 C 6,1 C 1,7 C 87 % 997,8 hPa 0,0 l/m 0 min 0 min 0 W/m 19,3 km/h (3 Bft) 100,00 %
13.04.2023 01:50 6,6 C 6,1 C 1,7 C 87 % 997,8 hPa 0,0 l/m 0 min 0 min 0 W/m 19,3 km/h (3 Bft) 97,87 %
13.04.2023 01:52 6,6 C 6,1 C 1,7 C 87 % 997,8 hPa 0,0 l/m 0 min 0 min 0 W/m 22,5 km/h (4 Bft) 100,00 %
13.04.2023 01:54 6,6 C 6,1 C 1,7 C 87 % 997,8 hPa 0,0 l/m 0 min 0 min 0 W/m 12,9 km/h (3 Bft) 100,00 %
13.04.2023 01:56 6,7 C 6,1 C 1,7 C 87 % 997,8 hPa 0,0 l/m 0 min 2 min 0 W/m 12,9 km/h (3 Bft) 100,00 %
13.04.2023 01:58 6,7 C 6,1 C 1,7 C 87 % 997,8 hPa 0,0 l/m 0 min 2 min 0 W/m 25,7 km/h (4 Bft) 100,00 %
13.04.2023 02:00 6,7 C 6,1 C 1,7 C 87 % 997,7 hPa 0,0 l/m 0 min 2 min 0 W/m 22,5 km/h (4 Bft) 97,87 %
13.04.2023 02:02 6,7 C 6,1 C 1,7 C 86 % 997,7 hPa 0,0 l/m 0 min 2 min 0 W/m 22,5 km/h (4 Bft) 100,00 %
13.04.2023 02:04 6,7 C 6,1 C 1,7 C 86 % 997,6 hPa 0,0 l/m 0 min 2 min 0 W/m 25,7 km/h (4 Bft) 100,00 %
13.04.2023 02:06 6,8 C 6,1 C 1,7 C 86 % 997,7 hPa 0,0 l/m 0 min 2 min 0 W/m 22,5 km/h (4 Bft) 100,00 %
13.04.2023 02:08 6,8 C 6,1 C 1,7 C 86 % 997,6 hPa 0,0 l/m 0 min 2 min 0 W/m 29,0 km/h (5 Bft) 100,00 %
13.04.2023 02:10 6,8 C 6,1 C 1,7 C 86 % 997,5 hPa 0,0 l/m 0 min 2 min 0 W/m 29,0 km/h (5 Bft) 97,87 %
13.04.2023 02:17 6,9 C 6,1 C 1,7 C 86 % 997,6 hPa 0,0 l/m 0 min 5 min 0 W/m 35,4 km/h (5 Bft) 98,68 %
13.04.2023 02:18 6,9 C 6,1 C 1,7 C 86 % 997,6 hPa 0,0 l/m 0 min 1 min 0 W/m 25,7 km/h (4 Bft) 100,00 %
13.04.2023 02:20 7,0 C 6,1 C 1,7 C 86 % 997,6 hPa 0,0 l/m 0 min 2 min 0 W/m 32,2 km/h (5 Bft) 93,62 %
13.04.2023 02:22 7,0 C 6,1 C 1,7 C 86 % 997,6 hPa 0,0 l/m 0 min 2 min 0 W/m 19,3 km/h (3 Bft) 95,74 %
13.04.2023 02:24 7,0 C 6,1 C 1,7 C 86 % 997,5 hPa 0,0 l/m 0 min 2 min 0 W/m 16,1 km/h (3 Bft) 95,74 %
13.04.2023 02:26 6,9 C 6,1 C 1,7 C 86 % 997,5 hPa 0,0 l/m 0 min 2 min 0 W/m 35,4 km/h (5 Bft) 95,65 %
13.04.2023 02:28 6,9 C 5,6 C 1,7 C 86 % 997,5 hPa 0,2 l/m 0 min 2 min 0 W/m 25,7 km/h (4 Bft) 97,87 %
13.04.2023 02:30 6,9 C 5,6 C 1,7 C 87 % 997,6 hPa 0,0 l/m 0 min 2 min 0 W/m 41,8 km/h (6 Bft) 97,87 %
13.04.2023 02:32 6,9 C 5,6 C 1,7 C 87 % 997,5 hPa 0,0 l/m 0 min 2 min 0 W/m 19,3 km/h (3 Bft) 97,87 %
13.04.2023 02:34 6,9 C 5,6 C 1,7 C 87 % 997,5 hPa 0,0 l/m 0 min 2 min 0 W/m 32,2 km/h (5 Bft) 97,87 %
13.04.2023 02:36 6,9 C 5,6 C 1,7 C 87 % 997,5 hPa 0,0 l/m 0 min 2 min 0 W/m 25,7 km/h (4 Bft) 97,87 %
13.04.2023 02:38 6,9 C 5,6 C 1,7 C 87 % 997,5 hPa 0,2 l/m 0 min 2 min 0 W/m 38,6 km/h (5 Bft) 97,83 %
13.04.2023 02:40 6,9 C 5,6 C 1,7 C 87 % 997,5 hPa 0,0 l/m 0 min 2 min 0 W/m 32,2 km/h (5 Bft) 97,87 %
13.04.2023 02:42 6,9 C 5,6 C 1,7 C 88 % 997,6 hPa 0,0 l/m 0 min 2 min 0 W/m 41,8 km/h (6 Bft) 97,87 %
13.04.2023 02:44 6,9 C 5,6 C 1,7 C 88 % 997,5 hPa 0,0 l/m 0 min 2 min 0 W/m 41,8 km/h (6 Bft) 97,87 %
13.04.2023 02:46 6,9 C 5,6 C 1,7 C 88 % 997,5 hPa 0,0 l/m 0 min 2 min 0 W/m 19,3 km/h (3 Bft) 91,49 %
13.04.2023 02:48 6,8 C 5,6 C 1,7 C 88 % 997,5 hPa 0,0 l/m 0 min 2 min 0 W/m 35,4 km/h (5 Bft) 97,87 %
13.04.2023 02:50 6,8 C 5,6 C 1,7 C 88 % 997,5 hPa 0,0 l/m 0 min 2 min 0 W/m 35,4 km/h (5 Bft) 97,87 %
13.04.2023 02:52 6,8 C 5,6 C 1,7 C 88 % 997,5 hPa 0,0 l/m 0 min 2 min 0 W/m 35,4 km/h (5 Bft) 93,48 %
13.04.2023 02:54 6,8 C 5,6 C 1,7 C 88 % 997,4 hPa 0,0 l/m 0 min 0 min 0 W/m 35,4 km/h (5 Bft) 97,92 %
13.04.2023 02:56 6,8 C 5,6 C 1,7 C 88 % 997,4 hPa 0,0 l/m 0 min 0 min 0 W/m 35,4 km/h (5 Bft) 95,74 %
13.04.2023 02:58 6,8 C 5,6 C 1,7 C 88 % 997,3 hPa 0,0 l/m 0 min 0 min 0 W/m 35,4 km/h (5 Bft) 95,74 %
13.04.2023 03:00 6,8 C 5,6 C 1,7 C 88 % 997,3 hPa 0,0 l/m 0 min 0 min 0 W/m 29,0 km/h (5 Bft) 97,87 %
13.04.2023 03:02 6,8 C 6,1 C 1,7 C 88 % 997,3 hPa 0,0 l/m 0 min 0 min 0 W/m 32,2 km/h (5 Bft) 97,83 %
13.04.2023 03:04 6,9 C 6,1 C 1,7 C 88 % 997,2 hPa 0,0 l/m 0 min 0 min 0 W/m 25,7 km/h (4 Bft) 97,87 %
13.04.2023 03:06 6,9 C 6,1 C 1,7 C 88 % 997,3 hPa 0,0 l/m 0 min 0 min 0 W/m 29,0 km/h (5 Bft) 96,00 %
13.04.2023 03:08 6,9 C 6,1 C 1,7 C 88 % 997,3 hPa 0,0 l/m 0 min 0 min 0 W/m 35,4 km/h (5 Bft) 97,87 %
13.04.2023 03:10 6,9 C 6,1 C 1,7 C 88 % 997,3 hPa 0,0 l/m 0 min 0 min 0 W/m 29,0 km/h (5 Bft) 97,87 %
13.04.2023 03:12 6,9 C 6,1 C 1,7 C 88 % 997,3 hPa 0,0 l/m 0 min 0 min 0 W/m 25,7 km/h (4 Bft) 95,74 %
13.04.2023 03:14 7,0 C 6,1 C 1,7 C 88 % 997,1 hPa 0,0 l/m 0 min 0 min 0 W/m 25,7 km/h (4 Bft) 98,00 %
13.04.2023 03:16 7,1 C 6,1 C 1,7 C 88 % 997,2 hPa 0,0 l/m 0 min 0 min 0 W/m 35,4 km/h (5 Bft) 97,87 %
13.04.2023 03:18 7,1 C 6,1 C 1,7 C 87 % 997,2 hPa 0,0 l/m 0 min 0 min 0 W/m 32,2 km/h (5 Bft) 97,87 %
13.04.2023 03:20 7,1 C 6,7 C 1,7 C 87 % 997,3 hPa 0,0 l/m 0 min 0 min 0 W/m 38,6 km/h (5 Bft) 97,92 %
13.04.2023 03:22 7,1 C 6,7 C 1,7 C 87 % 997,2 hPa 0,0 l/m 0 min 0 min 0 W/m 29,0 km/h (5 Bft) 97,87 %
13.04.2023 03:24 7,1 C 6,7 C 1,7 C 87 % 997,2 hPa 0,0 l/m 0 min 0 min 0 W/m 29,0 km/h (5 Bft) 94,59 %
13.04.2023 03:26 7,1 C 6,7 C 1,7 C 87 % 997,2 hPa 0,0 l/m 0 min 0 min 0 W/m 22,5 km/h (4 Bft) 61,70 %
13.04.2023 03:28 7,2 C 6,7 C 1,7 C 87 % 997,3 hPa 0,0 l/m 0 min 0 min 0 W/m 25,7 km/h (4 Bft) 88,24 %
13.04.2023 03:30 7,2 C 6,7 C 1,7 C 86 % 997,2 hPa 0,0 l/m 0 min 0 min 0 W/m 38,6 km/h (5 Bft) 97,83 %
13.04.2023 03:32 7,3 C 6,7 C 1,7 C 86 % 997,3 hPa 0,0 l/m 0 min 0 min 0 W/m 41,8 km/h (6 Bft) 97,87 %
13.04.2023 03:34 7,3 C 6,7 C 1,7 C 86 % 997,3 hPa 0,0 l/m 0 min 0 min 0 W/m 29,0 km/h (5 Bft) 95,74 %
13.04.2023 03:36 7,3 C 6,7 C 1,7 C 86 % 997,2 hPa 0,0 l/m 0 min 0 min 0 W/m 29,0 km/h (5 Bft) 97,87 %
13.04.2023 03:38 7,3 C 6,7 C 1,7 C 86 % 997,2 hPa 0,0 l/m 0 min 0 min 0 W/m 22,5 km/h (4 Bft) 97,87 %
13.04.2023 03:40 7,3 C 6,7 C 2,2 C 86 % 997,3 hPa 0,0 l/m 0 min 0 min 0 W/m 25,7 km/h (4 Bft) 95,74 %
13.04.2023 03:42 7,3 C 6,7 C 2,2 C 86 % 997,1 hPa 0,0 l/m 0 min 0 min 0 W/m 32,2 km/h (5 Bft) 97,83 %
13.04.2023 03:44 7,3 C 6,7 C 1,7 C 86 % 997,1 hPa 0,0 l/m 0 min 0 min 0 W/m 35,4 km/h (5 Bft) 95,74 %
13.04.2023 03:46 7,3 C 6,7 C 1,7 C 86 % 997,1 hPa 0,0 l/m 0 min 0 min 0 W/m 41,8 km/h (6 Bft) 95,74 %
13.04.2023 03:48 7,3 C 6,7 C 1,7 C 86 % 997,1 hPa 0,0 l/m 0 min 0 min 0 W/m 22,5 km/h (4 Bft) 97,87 %
13.04.2023 03:50 7,3 C 6,7 C 1,7 C 86 % 997,2 hPa 0,0 l/m 0 min 0 min 0 W/m 22,5 km/h (4 Bft) 97,87 %
13.04.2023 03:52 7,3 C 6,7 C 1,7 C 86 % 997,1 hPa 0,0 l/m 0 min 0 min 0 W/m 32,2 km/h (5 Bft) 97,87 %
13.04.2023 03:54 7,3 C 6,7 C 2,2 C 86 % 997,2 hPa 0,0 l/m 0 min 0 min 0 W/m 29,0 km/h (5 Bft) 97,87 %
13.04.2023 03:56 7,3 C 6,7 C 1,7 C 86 % 997,2 hPa 0,0 l/m 0 min 0 min 0 W/m 45,1 km/h (6 Bft) 97,83 %
13.04.2023 03:58 7,3 C 6,7 C 2,2 C 86 % 997,2 hPa 0,0 l/m 0 min 2 min 0 W/m 25,7 km/h (4 Bft) 95,74 %
13.04.2023 04:00 7,3 C 6,7 C 2,2 C 86 % 997,2 hPa 0,0 l/m 0 min 2 min 0 W/m 22,5 km/h (4 Bft) 97,87 %
13.04.2023 04:02 7,3 C 6,7 C 2,2 C 86 % 997,3 hPa 0,0 l/m 0 min 2 min 0 W/m 22,5 km/h (4 Bft) 97,87 %
13.04.2023 04:04 7,3 C 6,7 C 1,7 C 86 % 997,2 hPa 0,0 l/m 0 min 2 min 0 W/m 32,2 km/h (5 Bft) 97,96 %
13.04.2023 04:06 7,4 C 6,7 C 1,7 C 86 % 997,2 hPa 0,0 l/m 0 min 2 min 0 W/m 38,6 km/h (5 Bft) 95,74 %
13.04.2023 04:08 7,4 C 6,7 C 1,7 C 85 % 997,2 hPa 0,0 l/m 0 min 2 min 0 W/m 48,3 km/h (6 Bft) 97,83 %
13.04.2023 04:10 7,4 C 6,7 C 1,7 C 85 % 997,2 hPa 0,0 l/m 0 min 2 min 0 W/m 38,6 km/h (5 Bft) 97,87 %
13.04.2023 04:12 7,4 C 6,7 C 1,7 C 85 % 997,2 hPa 0,0 l/m 0 min 2 min 0 W/m 45,1 km/h (6 Bft) 95,74 %
13.04.2023 04:14 7,4 C 6,7 C 1,7 C 85 % 997,2 hPa 0,0 l/m 0 min 2 min 0 W/m 22,5 km/h (4 Bft) 95,74 %
13.04.2023 04:16 7,4 C 6,7 C 1,7 C 85 % 997,4 hPa 0,0 l/m 0 min 2 min 0 W/m 35,4 km/h (5 Bft) 97,87 %
13.04.2023 04:18 7,4 C 6,7 C 1,7 C 85 % 997,2 hPa 0,0 l/m 0 min 2 min 0 W/m 32,2 km/h (5 Bft) 97,87 %
13.04.2023 04:20 7,4 C 6,7 C 1,7 C 85 % 997,3 hPa 0,0 l/m 0 min 2 min 0 W/m 32,2 km/h (5 Bft) 97,83 %
13.04.2023 04:22 7,5 C 6,7 C 1,7 C 85 % 997,4 hPa 0,0 l/m 0 min 2 min 0 W/m 54,7 km/h (7 Bft) 100,00 %
13.04.2023 04:24 7,5 C 6,7 C 1,7 C 85 % 997,3 hPa 0,0 l/m 0 min 2 min 0 W/m 41,8 km/h (6 Bft) 100,00 %
13.04.2023 04:26 7,5 C 6,7 C 1,7 C 85 % 997,3 hPa 0,0 l/m 0 min 2 min 0 W/m 48,3 km/h (6 Bft) 93,62 %
13.04.2023 04:28 7,5 C 6,7 C 2,2 C 85 % 997,3 hPa 0,0 l/m 0 min 0 min 0 W/m 22,5 km/h (4 Bft) 97,87 %
13.04.2023 04:30 7,5 C 6,7 C 2,2 C 85 % 997,3 hPa 0,0 l/m 0 min 0 min 0 W/m 38,6 km/h (5 Bft) 100,00 %
13.04.2023 04:32 7,5 C 6,7 C 2,2 C 85 % 997,5 hPa 0,0 l/m 0 min 0 min 0 W/m 38,6 km/h (5 Bft) 95,65 %
13.04.2023 04:34 7,6 C 6,7 C 2,2 C 85 % 997,4 hPa 0,0 l/m 0 min 0 min 0 W/m 38,6 km/h (5 Bft) 97,87 %
13.04.2023 04:36 7,6 C 6,7 C 2,2 C 85 % 997,4 hPa 0,0 l/m 0 min 2 min 0 W/m 38,6 km/h (5 Bft) 97,87 %
13.04.2023 04:38 7,6 C 6,7 C 2,2 C 85 % 997,3 hPa 0,0 l/m 0 min 2 min 0 W/m 41,8 km/h (6 Bft) 100,00 %
13.04.2023 04:40 7,6 C 6,7 C 2,2 C 85 % 997,5 hPa 0,0 l/m 0 min 2 min 0 W/m 32,2 km/h (5 Bft) 97,87 %
13.04.2023 04:42 7,5 C 6,7 C 2,2 C 85 % 997,4 hPa 0,0 l/m 0 min 2 min 0 W/m 35,4 km/h (5 Bft) 97,87 %
13.04.2023 04:44 7,5 C 6,7 C 2,2 C 85 % 997,3 hPa 0,0 l/m 0 min 0 min 0 W/m 38,6 km/h (5 Bft) 97,87 %
13.04.2023 04:46 7,5 C 6,7 C 2,2 C 85 % 997,4 hPa 0,0 l/m 0 min 0 min 0 W/m 32,2 km/h (5 Bft) 97,83 %
13.04.2023 04:48 7,5 C 6,7 C 2,2 C 85 % 997,4 hPa 0,0 l/m 0 min 0 min 0 W/m 41,8 km/h (6 Bft) 95,74 %
13.04.2023 04:50 7,5 C 6,7 C 2,2 C 86 % 997,4 hPa 0,0 l/m 0 min 0 min 0 W/m 29,0 km/h (5 Bft) 95,74 %
13.04.2023 04:52 7,5 C 6,7 C 2,2 C 86 % 997,4 hPa 0,0 l/m 0 min 0 min 0 W/m 32,2 km/h (5 Bft) 94,44 %
13.04.2023 04:54 7,5 C 6,7 C 2,8 C 86 % 997,4 hPa 0,0 l/m 0 min 0 min 0 W/m 48,3 km/h (6 Bft) 94,92 %
13.04.2023 04:56 7,5 C 6,7 C 2,8 C 85 % 997,5 hPa 0,0 l/m 0 min 0 min 0 W/m 32,2 km/h (5 Bft) 94,29 %
13.04.2023 04:58 7,5 C 6,7 C 2,8 C 86 % 997,5 hPa 0,0 l/m 0 min 0 min 0 W/m 35,4 km/h (5 Bft) 93,10 %
13.04.2023 05:00 7,4 C 6,7 C 2,8 C 86 % 997,5 hPa 0,0 l/m 0 min 0 min 0 W/m 35,4 km/h (5 Bft) 93,62 %
13.04.2023 05:02 7,5 C 6,7 C 3,3 C 85 % 997,5 hPa 0,0 l/m 0 min 0 min 0 W/m 35,4 km/h (5 Bft) 95,74 %
13.04.2023 05:04 7,5 C 6,7 C 3,3 C 85 % 997,6 hPa 0,0 l/m 0 min 0 min 0 W/m 38,6 km/h (5 Bft) 100,00 %
13.04.2023 05:06 7,5 C 6,7 C 3,3 C 85 % 997,4 hPa 0,0 l/m 0 min 0 min 0 W/m 48,3 km/h (6 Bft) 94,92 %
13.04.2023 05:08 7,5 C 6,7 C 3,3 C 85 % 997,5 hPa 0,0 l/m 0 min 0 min 0 W/m 32,2 km/h (5 Bft) 94,29 %
13.04.2023 05:10 7,5 C 6,7 C 3,3 C 85 % 997,6 hPa 0,0 l/m 0 min 0 min 0 W/m 41,8 km/h (6 Bft) 93,88 %
13.04.2023 05:12 7,5 C 6,7 C 3,3 C 85 % 997,5 hPa 0,0 l/m 0 min 0 min 0 W/m 54,7 km/h (7 Bft) 95,65 %
13.04.2023 05:14 7,5 C 6,7 C 3,3 C 85 % 997,5 hPa 0,0 l/m 0 min 0 min 0 W/m 38,6 km/h (5 Bft) 97,22 %
13.04.2023 05:16 7,5 C 6,7 C 3,3 C 85 % 997,8 hPa 0,0 l/m 0 min 0 min 0 W/m 32,2 km/h (5 Bft) 95,08 %
13.04.2023 05:18 7,5 C 6,7 C 3,3 C 85 % 997,6 hPa 0,0 l/m 0 min 0 min 0 W/m 32,2 km/h (5 Bft) 94,29 %
13.04.2023 05:20 7,5 C 6,7 C 3,3 C 85 % 997,6 hPa 0,0 l/m 0 min 0 min 0 W/m 48,3 km/h (6 Bft) 97,87 %
13.04.2023 05:22 7,5 C 6,7 C 3,3 C 85 % 997,7 hPa 0,0 l/m 0 min 2 min 0 W/m 41,8 km/h (6 Bft) 98,15 %
13.04.2023 05:24 7,5 C 6,7 C 2,8 C 85 % 997,5 hPa 0,0 l/m 0 min 2 min 0 W/m 38,6 km/h (5 Bft) 100,00 %
13.04.2023 05:26 7,4 C 6,7 C 2,8 C 85 % 997,6 hPa 0,0 l/m 0 min 2 min 0 W/m 29,0 km/h (5 Bft) 100,00 %
13.04.2023 05:28 7,4 C 6,7 C 2,8 C 85 % 997,5 hPa 0,0 l/m 0 min 2 min 0 W/m 51,5 km/h (7 Bft) 100,00 %
13.04.2023 05:30 7,4 C 6,1 C 2,8 C 86 % 997,6 hPa 0,0 l/m 0 min 2 min 0 W/m 29,0 km/h (5 Bft) 100,00 %
13.04.2023 05:32 7,3 C 6,1 C 2,8 C 86 % 997,6 hPa 0,0 l/m 0 min 2 min 0 W/m 32,2 km/h (5 Bft) 100,00 %
13.04.2023 05:34 7,3 C 6,7 C 2,8 C 86 % 997,7 hPa 0,0 l/m 0 min 2 min 0 W/m 32,2 km/h (5 Bft) 100,00 %
13.04.2023 05:36 7,3 C 6,7 C 2,8 C 86 % 997,7 hPa 0,0 l/m 0 min 0 min 0 W/m 29,0 km/h (5 Bft) 97,87 %
13.04.2023 05:38 7,3 C 6,7 C 2,8 C 86 % 997,6 hPa 0,0 l/m 0 min 2 min 0 W/m 41,8 km/h (6 Bft) 100,00 %
13.04.2023 05:40 7,3 C 6,7 C 2,8 C 86 % 997,7 hPa 0,0 l/m 0 min 2 min 0 W/m 38,6 km/h (5 Bft) 100,00 %
13.04.2023 05:42 7,3 C 6,7 C 2,8 C 86 % 997,6 hPa 0,0 l/m 0 min 0 min 0 W/m 35,4 km/h (5 Bft) 97,87 %
13.04.2023 05:44 7,3 C 6,7 C 2,8 C 86 % 997,8 hPa 0,0 l/m 0 min 2 min 0 W/m 45,1 km/h (6 Bft) 100,00 %
13.04.2023 05:46 7,3 C 6,1 C 2,8 C 87 % 997,8 hPa 0,0 l/m 0 min 2 min 0 W/m 25,7 km/h (4 Bft) 97,87 %
13.04.2023 05:48 7,2 C 6,1 C 2,8 C 87 % 997,8 hPa 0,0 l/m 0 min 2 min 0 W/m 35,4 km/h (5 Bft) 97,87 %
13.04.2023 05:50 7,2 C 6,1 C 2,8 C 87 % 997,8 hPa 0,0 l/m 0 min 2 min 0 W/m 35,4 km/h (5 Bft) 100,00 %
13.04.2023 05:52 7,2 C 6,1 C 2,8 C 87 % 997,8 hPa 0,0 l/m 0 min 2 min 0 W/m 45,1 km/h (6 Bft) 100,00 %
13.04.2023 05:54 7,2 C 6,1 C 2,8 C 87 % 997,9 hPa 0,0 l/m 0 min 2 min 0 W/m 32,2 km/h (5 Bft) 97,87 %
13.04.2023 05:56 7,1 C 6,1 C 2,8 C 88 % 998,0 hPa 0,0 l/m 0 min 2 min 0 W/m 29,0 km/h (5 Bft) 95,74 %
13.04.2023 05:58 7,1 C 6,1 C 2,8 C 88 % 997,9 hPa 0,0 l/m 0 min 2 min 0 W/m 61,2 km/h (7 Bft) 100,00 %
13.04.2023 06:00 7,1 C 6,1 C 2,2 C 88 % 997,9 hPa 0,0 l/m 0 min 2 min 0 W/m 35,4 km/h (5 Bft) 97,87 %
13.04.2023 06:02 7,1 C 6,1 C 2,2 C 88 % 997,9 hPa 0,0 l/m 0 min 2 min 0 W/m 35,4 km/h (5 Bft) 97,87 %
13.04.2023 06:04 7,1 C 6,1 C 2,2 C 88 % 998,0 hPa 0,0 l/m 0 min 2 min 0 W/m 57,9 km/h (7 Bft) 100,00 %
13.04.2023 06:07 7,1 C 6,1 C 2,2 C 89 % 998,0 hPa 0,0 l/m 0 min 3 min 0 W/m 51,5 km/h (7 Bft) 98,59 %
13.04.2023 06:08 7,1 C 6,1 C 2,2 C 89 % 998,0 hPa 0,0 l/m 0 min 1 min 0 W/m 41,8 km/h (6 Bft) 100,00 %
13.04.2023 06:12 7,0 C 6,1 C 2,8 C 89 % 998,0 hPa 0,0 l/m 0 min 4 min 0 W/m 35,4 km/h (5 Bft) 97,96 %
13.04.2023 06:14 7,0 C 6,1 C 2,8 C 89 % 998,0 hPa 0,0 l/m 0 min 2 min 0 W/m 29,0 km/h (5 Bft) 100,00 %
13.04.2023 06:16 6,9 C 6,1 C 2,8 C 89 % 998,1 hPa 0,0 l/m 0 min 2 min 0 W/m 38,6 km/h (5 Bft) 100,00 %
13.04.2023 06:18 6,9 C 6,1 C 2,8 C 89 % 998,1 hPa 0,0 l/m 0 min 2 min 0 W/m 29,0 km/h (5 Bft) 97,87 %
13.04.2023 06:20 6,9 C 6,1 C 2,8 C 90 % 998,1 hPa 0,0 l/m 0 min 2 min 0 W/m 32,2 km/h (5 Bft) 97,83 %
13.04.2023 06:22 6,9 C 6,1 C 2,8 C 90 % 998,1 hPa 0,0 l/m 0 min 2 min 0 W/m 29,0 km/h (5 Bft) 100,00 %
13.04.2023 06:24 6,9 C 6,1 C 2,8 C 90 % 998,3 hPa 0,0 l/m 0 min 2 min 0 W/m 29,0 km/h (5 Bft) 97,87 %
13.04.2023 06:26 6,8 C 6,1 C 2,8 C 90 % 998,3 hPa 0,0 l/m 0 min 2 min 0 W/m 41,8 km/h (6 Bft) 100,00 %
13.04.2023 06:28 6,8 C 6,1 C 2,8 C 90 % 998,3 hPa 0,0 l/m 0 min 2 min 0 W/m 22,5 km/h (4 Bft) 100,00 %
13.04.2023 06:30 6,8 C 6,1 C 2,8 C 90 % 998,4 hPa 0,0 l/m 0 min 2 min 0 W/m 32,2 km/h (5 Bft) 95,74 %
13.04.2023 06:32 6,8 C 6,1 C 2,8 C 91 % 998,4 hPa 0,0 l/m 0 min 2 min 0 W/m 32,2 km/h (5 Bft) 100,00 %
13.04.2023 06:34 6,8 C 6,1 C 2,2 C 91 % 998,4 hPa 0,0 l/m 0 min 2 min 0 W/m 29,0 km/h (5 Bft) 97,83 %
13.04.2023 06:36 6,8 C 5,6 C 2,2 C 91 % 998,4 hPa 0,0 l/m 0 min 2 min 0 W/m 29,0 km/h (5 Bft) 93,62 %
13.04.2023 06:38 6,8 C 5,6 C 2,2 C 91 % 998,5 hPa 0,2 l/m 0 min 2 min 0 W/m 22,5 km/h (4 Bft) 97,87 %
13.04.2023 06:40 6,8 C 5,6 C 2,2 C 91 % 998,5 hPa 0,0 l/m 0 min 2 min 0 W/m 22,5 km/h (4 Bft) 95,74 %
13.04.2023 06:42 6,8 C 5,6 C 2,2 C 91 % 998,6 hPa 0,0 l/m 0 min 2 min 0 W/m 19,3 km/h (3 Bft) 91,49 %
13.04.2023 06:44 6,7 C 5,6 C 2,2 C 91 % 998,6 hPa 0,0 l/m 0 min 0 min 0 W/m 25,7 km/h (4 Bft) 95,74 %
13.04.2023 06:46 6,7 C 6,1 C 2,2 C 92 % 998,6 hPa 0,0 l/m 0 min 2 min 0 W/m 38,6 km/h (5 Bft) 95,65 %
13.04.2023 06:48 6,8 C 6,1 C 2,2 C 92 % 998,7 hPa 0,0 l/m 0 min 2 min 0 W/m 25,7 km/h (4 Bft) 93,62 %
13.04.2023 06:50 6,7 C 6,1 C 2,2 C 92 % 998,7 hPa 0,0 l/m 0 min 2 min 0 W/m 19,3 km/h (3 Bft) 95,74 %
13.04.2023 06:52 6,7 C 6,1 C 2,2 C 92 % 998,9 hPa 0,0 l/m 0 min 0 min 0 W/m 16,1 km/h (3 Bft) 93,62 %
13.04.2023 06:54 6,8 C 6,1 C 2,2 C 92 % 998,8 hPa 0,0 l/m 0 min 0 min 0 W/m 22,5 km/h (4 Bft) 93,62 %
13.04.2023 06:56 6,8 C 6,1 C 2,2 C 92 % 999,0 hPa 0,0 l/m 0 min 0 min 0 W/m 35,4 km/h (5 Bft) 95,74 %
13.04.2023 06:58 6,8 C 6,1 C 2,8 C 92 % 999,0 hPa 0,0 l/m 0 min 0 min 1 W/m 32,2 km/h (5 Bft) 95,65 %
13.04.2023 07:00 6,8 C 6,1 C 2,8 C 92 % 999,0 hPa 0,0 l/m 0 min 0 min 6 W/m 25,7 km/h (4 Bft) 95,74 %
13.04.2023 07:02 6,8 C 6,1 C 2,8 C 92 % 998,9 hPa 0,0 l/m 0 min 0 min 7 W/m 19,3 km/h (3 Bft) 95,74 %
13.04.2023 07:04 6,8 C 6,1 C 2,8 C 92 % 999,1 hPa 0,0 l/m 0 min 0 min 7 W/m 29,0 km/h (5 Bft) 93,75 %
13.04.2023 07:06 6,8 C 6,1 C 2,8 C 92 % 999,1 hPa 0,0 l/m 0 min 0 min 10 W/m 19,3 km/h (3 Bft) 93,22 %
13.04.2023 07:08 6,8 C 6,1 C 2,8 C 92 % 999,1 hPa 0,0 l/m 0 min 0 min 12 W/m 22,5 km/h (4 Bft) 97,14 %
13.04.2023 07:10 6,8 C 6,1 C 2,8 C 92 % 999,2 hPa 0,0 l/m 0 min 0 min 14 W/m 22,5 km/h (4 Bft) 93,62 %
13.04.2023 07:12 6,8 C 6,1 C 2,8 C 92 % 999,2 hPa 0,0 l/m 0 min 0 min 20 W/m 19,3 km/h (3 Bft) 95,65 %
13.04.2023 07:14 6,8 C 6,1 C 2,8 C 92 % 999,2 hPa 0,0 l/m 0 min 0 min 23 W/m 29,0 km/h (5 Bft) 95,74 %
13.04.2023 07:16 6,8 C 6,1 C 2,8 C 92 % 999,2 hPa 0,0 l/m 0 min 0 min 25 W/m 25,7 km/h (4 Bft) 95,74 %
13.04.2023 07:18 6,8 C 6,1 C 2,8 C 92 % 999,2 hPa 0,0 l/m 0 min 0 min 29 W/m 22,5 km/h (4 Bft) 63,83 %
13.04.2023 07:20 6,8 C 6,1 C 2,8 C 92 % 999,2 hPa 0,0 l/m 0 min 0 min 31 W/m 22,5 km/h (4 Bft) 77,14 %
13.04.2023 07:22 6,8 C 6,1 C 2,8 C 92 % 999,3 hPa 0,0 l/m 0 min 0 min 32 W/m 22,5 km/h (4 Bft) 95,74 %
13.04.2023 07:24 6,8 C 6,1 C 2,8 C 91 % 999,3 hPa 0,0 l/m 0 min 0 min 30 W/m 22,5 km/h (4 Bft) 93,48 %
13.04.2023 07:26 6,9 C 6,1 C 2,8 C 91 % 999,3 hPa 0,0 l/m 0 min 0 min 29 W/m 16,1 km/h (3 Bft) 97,87 %
13.04.2023 07:28 6,8 C 6,1 C 2,8 C 91 % 999,3 hPa 0,0 l/m 0 min 0 min 28 W/m 22,5 km/h (4 Bft) 97,87 %
13.04.2023 07:30 6,9 C 6,1 C 2,8 C 91 % 999,3 hPa 0,0 l/m 0 min 0 min 34 W/m 22,5 km/h (4 Bft) 97,87 %
13.04.2023 07:32 6,8 C 6,1 C 2,8 C 91 % 999,4 hPa 0,0 l/m 0 min 0 min 42 W/m 29,0 km/h (5 Bft) 97,87 %
13.04.2023 07:34 6,9 C 6,7 C 3,3 C 91 % 999,5 hPa 0,0 l/m 0 min 0 min 51 W/m 16,1 km/h (3 Bft) 95,74 %
13.04.2023 07:36 6,9 C 6,7 C 3,3 C 91 % 999,5 hPa 0,0 l/m 0 min 0 min 54 W/m 29,0 km/h (5 Bft) 97,87 %
13.04.2023 07:38 6,9 C 6,7 C 3,3 C 91 % 999,5 hPa 0,0 l/m 0 min 0 min 61 W/m 19,3 km/h (3 Bft) 97,83 %
13.04.2023 07:40 6,9 C 6,7 C 3,3 C 91 % 999,7 hPa 0,0 l/m 0 min 0 min 57 W/m 22,5 km/h (4 Bft) 97,87 %
13.04.2023 07:42 7,0 C 6,7 C 3,3 C 91 % 999,7 hPa 0,0 l/m 0 min 0 min 59 W/m 22,5 km/h (4 Bft) 97,87 %
13.04.2023 07:44 7,1 C 6,7 C 3,3 C 91 % 999,8 hPa 0,0 l/m 0 min 0 min 48 W/m 25,7 km/h (4 Bft) 97,87 %
13.04.2023 07:46 7,1 C 6,7 C 3,3 C 91 % 999,9 hPa 0,0 l/m 0 min 0 min 44 W/m 38,6 km/h (5 Bft) 97,87 %
13.04.2023 07:48 7,1 C 6,7 C 3,3 C 90 % 999,8 hPa 0,0 l/m 0 min 0 min 56 W/m 19,3 km/h (3 Bft) 97,87 %
13.04.2023 07:50 7,1 C 6,7 C 3,3 C 90 % 999,8 hPa 0,0 l/m 0 min 0 min 66 W/m 19,3 km/h (3 Bft) 95,74 %
13.04.2023 07:52 7,1 C 6,7 C 3,3 C 90 % 999,9 hPa 0,0 l/m 0 min 0 min 71 W/m 25,7 km/h (4 Bft) 97,83 %
13.04.2023 07:54 7,1 C 6,7 C 3,3 C 90 % 999,9 hPa 0,0 l/m 0 min 0 min 80 W/m 19,3 km/h (3 Bft) 97,87 %
13.04.2023 07:56 7,1 C 6,7 C 3,3 C 90 % 1000,0 hPa 0,0 l/m 0 min 0 min 78 W/m 25,7 km/h (4 Bft) 97,87 %
13.04.2023 07:58 7,1 C 6,7 C 3,3 C 90 % 1000,0 hPa 0,0 l/m 0 min 0 min 70 W/m 19,3 km/h (3 Bft) 100,00 %
13.04.2023 08:00 7,1 C 6,7 C 3,3 C 90 % 1000,0 hPa 0,0 l/m 0 min 0 min 70 W/m 22,5 km/h (4 Bft) 100,00 %
13.04.2023 08:02 7,1 C 6,7 C 3,3 C 89 % 999,9 hPa 0,0 l/m 0 min 0 min 78 W/m 19,3 km/h (3 Bft) 97,87 %
13.04.2023 08:04 7,1 C 6,7 C 3,3 C 89 % 1000,1 hPa 0,0 l/m 0 min 0 min 76 W/m 19,3 km/h (3 Bft) 100,00 %
13.04.2023 08:06 7,1 C 6,7 C 3,3 C 89 % 1000,1 hPa 0,0 l/m 0 min 0 min 82 W/m 25,7 km/h (4 Bft) 98,31 %
13.04.2023 08:08 7,1 C 6,7 C 3,3 C 89 % 1000,1 hPa 0,0 l/m 0 min 0 min 89 W/m 29,0 km/h (5 Bft) 100,00 %
13.04.2023 08:10 7,1 C 7,2 C 3,3 C 89 % 1000,1 hPa 0,0 l/m 0 min 0 min 94 W/m 25,7 km/h (4 Bft) 100,00 %
13.04.2023 08:12 7,2 C 7,2 C 3,3 C 89 % 1000,2 hPa 0,0 l/m 0 min 0 min 95 W/m 29,0 km/h (5 Bft) 97,87 %
13.04.2023 08:14 7,2 C 7,2 C 3,3 C 89 % 1000,2 hPa 0,0 l/m 0 min 0 min 94 W/m 25,7 km/h (4 Bft) 100,00 %
13.04.2023 08:16 7,2 C 7,2 C 3,3 C 89 % 1000,2 hPa 0,0 l/m 0 min 0 min 93 W/m 35,4 km/h (5 Bft) 97,83 %
13.04.2023 08:18 7,2 C 7,2 C 3,3 C 89 % 1000,3 hPa 0,0 l/m 0 min 0 min 90 W/m 22,5 km/h (4 Bft) 100,00 %
13.04.2023 08:20 7,2 C 7,2 C 3,3 C 89 % 1000,3 hPa 0,0 l/m 0 min 0 min 87 W/m 41,8 km/h (6 Bft) 97,87 %
13.04.2023 08:22 7,2 C 7,2 C 3,3 C 89 % 1000,3 hPa 0,0 l/m 0 min 0 min 96 W/m 25,7 km/h (4 Bft) 100,00 %
13.04.2023 08:24 7,2 C 7,2 C 3,3 C 89 % 1000,4 hPa 0,0 l/m 0 min 0 min 98 W/m 25,7 km/h (4 Bft) 100,00 %
13.04.2023 08:26 7,2 C 7,2 C 3,3 C 89 % 1000,5 hPa 0,0 l/m 0 min 0 min 95 W/m 16,1 km/h (3 Bft) 100,00 %
13.04.2023 08:28 7,3 C 7,2 C 3,3 C 89 % 1000,4 hPa 0,0 l/m 0 min 0 min 101 W/m 12,9 km/h (3 Bft) 97,87 %
13.04.2023 08:30 7,3 C 7,2 C 3,9 C 89 % 1000,5 hPa 0,0 l/m 0 min 0 min 110 W/m 22,5 km/h (4 Bft) 97,83 %
13.04.2023 08:32 7,3 C 7,2 C 3,9 C 89 % 1000,6 hPa 0,0 l/m 0 min 0 min 107 W/m 25,7 km/h (4 Bft) 100,00 %
13.04.2023 08:34 7,3 C 7,2 C 3,9 C 89 % 1000,5 hPa 0,0 l/m 0 min 0 min 102 W/m 29,0 km/h (5 Bft) 100,00 %
13.04.2023 08:36 7,3 C 7,2 C 3,9 C 89 % 1000,5 hPa 0,0 l/m 0 min 0 min 116 W/m 22,5 km/h (4 Bft) 95,74 %
13.04.2023 08:38 7,3 C 7,2 C 3,9 C 89 % 1000,5 hPa 0,0 l/m 0 min 0 min 110 W/m 29,0 km/h (5 Bft) 97,87 %
13.04.2023 08:40 7,4 C 7,2 C 3,9 C 88 % 1000,6 hPa 0,0 l/m 0 min 0 min 110 W/m 32,2 km/h (5 Bft) 95,74 %
13.04.2023 08:42 7,4 C 7,2 C 3,9 C 88 % 1000,6 hPa 0,0 l/m 0 min 0 min 114 W/m 32,2 km/h (5 Bft) 97,83 %
13.04.2023 08:44 7,4 C 7,2 C 3,9 C 88 % 1000,6 hPa 0,0 l/m 0 min 0 min 121 W/m 22,5 km/h (4 Bft) 97,87 %
13.04.2023 08:46 7,4 C 7,2 C 3,9 C 88 % 1000,6 hPa 0,0 l/m 0 min 0 min 142 W/m 25,7 km/h (4 Bft) 97,87 %
13.04.2023 08:48 7,5 C 7,8 C 3,9 C 88 % 1000,7 hPa 0,0 l/m 0 min 0 min 144 W/m 29,0 km/h (5 Bft) 97,87 %
13.04.2023 08:50 7,6 C 7,8 C 3,9 C 88 % 1000,7 hPa 0,0 l/m 0 min 0 min 137 W/m 22,5 km/h (4 Bft) 93,62 %
13.04.2023 08:52 7,6 C 7,8 C 3,9 C 88 % 1000,8 hPa 0,0 l/m 0 min 0 min 133 W/m 19,3 km/h (3 Bft) 97,87 %
13.04.2023 08:54 7,6 C 7,8 C 3,9 C 88 % 1000,8 hPa 0,0 l/m 2 min 0 min 166 W/m 25,7 km/h (4 Bft) 97,83 %
13.04.2023 08:56 7,6 C 7,8 C 4,4 C 88 % 1000,8 hPa 0,0 l/m 2 min 0 min 186 W/m 22,5 km/h (4 Bft) 97,87 %
13.04.2023 08:58 7,7 C 7,8 C 4,4 C 88 % 1000,9 hPa 0,0 l/m 0 min 0 min 162 W/m 16,1 km/h (3 Bft) 97,87 %
13.04.2023 09:00 7,8 C 7,8 C 4,4 C 88 % 1000,9 hPa 0,0 l/m 2 min 0 min 170 W/m 29,0 km/h (5 Bft) 97,87 %
13.04.2023 09:02 7,8 C 8,3 C 4,4 C 88 % 1000,9 hPa 0,0 l/m 2 min 0 min 250 W/m 29,0 km/h (5 Bft) 97,87 %
13.04.2023 09:04 7,9 C 8,3 C 4,4 C 88 % 1000,9 hPa 0,0 l/m 2 min 0 min 271 W/m 25,7 km/h (4 Bft) 95,83 %
13.04.2023 09:06 7,9 C 8,3 C 5,0 C 88 % 1001,0 hPa 0,0 l/m 2 min 0 min 245 W/m 25,7 km/h (4 Bft) 98,28 %
13.04.2023 09:08 8,0 C 8,3 C 5,0 C 88 % 1001,0 hPa 0,0 l/m 2 min 0 min 205 W/m 38,6 km/h (5 Bft) 94,29 %
13.04.2023 09:10 8,0 C 8,3 C 4,4 C 87 % 1001,0 hPa 0,0 l/m 0 min 0 min 159 W/m 22,5 km/h (4 Bft) 100,00 %
13.04.2023 09:12 8,1 C 7,8 C 4,4 C 87 % 1001,2 hPa 0,0 l/m 0 min 0 min 125 W/m 35,4 km/h (5 Bft) 100,00 %
13.04.2023 09:14 8,1 C 7,8 C 4,4 C 87 % 1001,0 hPa 0,0 l/m 0 min 0 min 124 W/m 29,0 km/h (5 Bft) 100,00 %
13.04.2023 09:16 8,1 C 7,8 C 4,4 C 87 % 1001,1 hPa 0,0 l/m 0 min 0 min 103 W/m 19,3 km/h (3 Bft) 100,00 %
13.04.2023 09:18 8,1 C 7,8 C 4,4 C 87 % 1001,0 hPa 0,0 l/m 0 min 0 min 95 W/m 16,1 km/h (3 Bft) 100,00 %
13.04.2023 09:20 8,1 C 7,8 C 4,4 C 87 % 1001,2 hPa 0,0 l/m 0 min 0 min 84 W/m 12,9 km/h (3 Bft) 95,65 %
13.04.2023 09:22 8,1 C 7,8 C 4,4 C 87 % 1001,2 hPa 0,0 l/m 0 min 0 min 98 W/m 12,9 km/h (3 Bft) 100,00 %
13.04.2023 09:24 8,1 C 7,8 C 4,4 C 87 % 1001,1 hPa 0,0 l/m 0 min 0 min 97 W/m 25,7 km/h (4 Bft) 97,87 %
13.04.2023 09:26 8,1 C 7,8 C 4,4 C 87 % 1001,2 hPa 0,0 l/m 0 min 0 min 103 W/m 25,7 km/h (4 Bft) 97,87 %
13.04.2023 09:28 8,1 C 7,8 C 4,4 C 87 % 1001,2 hPa 0,0 l/m 0 min 0 min 140 W/m 16,1 km/h (3 Bft) 95,74 %
13.04.2023 09:30 8,1 C 7,8 C 4,4 C 87 % 1001,2 hPa 0,0 l/m 0 min 0 min 139 W/m 19,3 km/h (3 Bft) 97,87 %
13.04.2023 09:32 8,1 C 7,8 C 4,4 C 87 % 1001,2 hPa 0,0 l/m 0 min 0 min 124 W/m 25,7 km/h (4 Bft) 97,87 %
13.04.2023 09:34 8,2 C 8,3 C 4,4 C 87 % 1001,2 hPa 0,0 l/m 0 min 0 min 122 W/m 19,3 km/h (3 Bft) 97,83 %
13.04.2023 09:36 8,2 C 8,3 C 4,4 C 86 % 1001,3 hPa 0,0 l/m 0 min 0 min 130 W/m 25,7 km/h (4 Bft) 97,87 %
13.04.2023 09:38 8,2 C 8,3 C 5,0 C 86 % 1001,3 hPa 0,0 l/m 0 min 0 min 141 W/m 19,3 km/h (3 Bft) 93,62 %
13.04.2023 09:40 8,2 C 8,3 C 5,0 C 86 % 1001,3 hPa 0,0 l/m 0 min 0 min 163 W/m 29,0 km/h (5 Bft) 97,87 %
13.04.2023 09:42 8,3 C 8,3 C 5,0 C 86 % 1001,3 hPa 0,0 l/m 0 min 0 min 188 W/m 22,5 km/h (4 Bft) 97,87 %
13.04.2023 09:44 8,3 C 8,3 C 5,0 C 86 % 1001,4 hPa 0,0 l/m 0 min 0 min 174 W/m 22,5 km/h (4 Bft) 95,74 %
13.04.2023 09:46 8,3 C 8,3 C 5,0 C 86 % 1001,4 hPa 0,0 l/m 0 min 0 min 179 W/m 25,7 km/h (4 Bft) 95,65 %
13.04.2023 09:48 8,4 C 8,9 C 5,0 C 86 % 1001,4 hPa 0,0 l/m 0 min 0 min 187 W/m 12,9 km/h (3 Bft) 97,87 %
13.04.2023 09:50 8,4 C 8,9 C 5,6 C 86 % 1001,4 hPa 0,0 l/m 0 min 0 min 199 W/m 19,3 km/h (3 Bft) 93,62 %
13.04.2023 09:52 8,5 C 8,9 C 5,6 C 86 % 1001,4 hPa 0,0 l/m 0 min 0 min 221 W/m 35,4 km/h (5 Bft) 97,87 %
13.04.2023 09:54 8,6 C 8,9 C 5,6 C 86 % 1001,5 hPa 0,0 l/m 0 min 0 min 215 W/m 32,2 km/h (5 Bft) 97,87 %
13.04.2023 09:56 8,6 C 8,9 C 5,6 C 85 % 1001,5 hPa 0,0 l/m 2 min 0 min 253 W/m 35,4 km/h (5 Bft) 97,87 %
13.04.2023 09:58 8,6 C 9,4 C 5,6 C 85 % 1001,6 hPa 0,0 l/m 2 min 0 min 298 W/m 32,2 km/h (5 Bft) 97,83 %
13.04.2023 10:00 8,7 C 9,4 C 5,6 C 84 % 1001,5 hPa 0,0 l/m 2 min 0 min 262 W/m 32,2 km/h (5 Bft) 95,74 %
13.04.2023 10:02 8,8 C 10,0 C 5,6 C 85 % 1001,6 hPa 0,0 l/m 2 min 0 min 244 W/m 22,5 km/h (4 Bft) 95,74 %
13.04.2023 10:04 8,8 C 9,4 C 5,6 C 84 % 1001,7 hPa 0,0 l/m 0 min 0 min 182 W/m 32,2 km/h (5 Bft) 97,92 %
13.04.2023 10:06 8,8 C 9,4 C 5,6 C 84 % 1001,7 hPa 0,0 l/m 0 min 0 min 202 W/m 22,5 km/h (4 Bft) 94,92 %
13.04.2023 10:08 8,8 C 8,9 C 5,6 C 84 % 1001,7 hPa 0,0 l/m 0 min 0 min 154 W/m 19,3 km/h (3 Bft) 97,14 %
13.04.2023 10:10 8,8 C 8,9 C 5,6 C 84 % 1001,7 hPa 0,0 l/m 0 min 0 min 112 W/m 32,2 km/h (5 Bft) 97,87 %
13.04.2023 10:12 8,8 C 8,9 C 5,6 C 84 % 1001,8 hPa 0,0 l/m 0 min 0 min 113 W/m 19,3 km/h (3 Bft) 97,83 %
13.04.2023 10:14 8,8 C 8,3 C 5,0 C 84 % 1001,8 hPa 0,0 l/m 0 min 0 min 114 W/m 19,3 km/h (3 Bft) 97,87 %
13.04.2023 10:16 8,8 C 8,3 C 5,0 C 84 % 1001,8 hPa 0,0 l/m 0 min 0 min 96 W/m 16,1 km/h (3 Bft) 91,49 %
13.04.2023 10:18 8,8 C 8,3 C 5,0 C 84 % 1001,8 hPa 0,0 l/m 0 min 0 min 67 W/m 16,1 km/h (3 Bft) 97,87 %
13.04.2023 10:20 8,8 C 8,3 C 5,0 C 84 % 1001,9 hPa 0,0 l/m 0 min 0 min 57 W/m 22,5 km/h (4 Bft) 97,87 %
13.04.2023 10:22 8,8 C 8,3 C 5,0 C 84 % 1001,9 hPa 0,0 l/m 0 min 0 min 54 W/m 19,3 km/h (3 Bft) 97,87 %
13.04.2023 10:24 8,7 C 8,3 C 5,0 C 84 % 1001,9 hPa 0,0 l/m 0 min 0 min 60 W/m 19,3 km/h (3 Bft) 97,83 %
13.04.2023 10:26 8,7 C 8,3 C 5,0 C 84 % 1002,0 hPa 0,0 l/m 0 min 0 min 52 W/m 32,2 km/h (5 Bft) 97,87 %
13.04.2023 10:28 8,7 C 8,3 C 5,0 C 84 % 1002,1 hPa 0,0 l/m 0 min 0 min 52 W/m 12,9 km/h (3 Bft) 97,87 %
13.04.2023 10:30 8,7 C 8,3 C 5,0 C 84 % 1002,1 hPa 0,0 l/m 0 min 0 min 70 W/m 22,5 km/h (4 Bft) 93,62 %
13.04.2023 10:32 8,7 C 8,3 C 5,0 C 84 % 1002,1 hPa 0,0 l/m 0 min 0 min 90 W/m 19,3 km/h (3 Bft) 97,87 %
13.04.2023 10:34 8,7 C 8,3 C 5,0 C 84 % 1002,2 hPa 0,0 l/m 0 min 0 min 90 W/m 16,1 km/h (3 Bft) 95,74 %
13.04.2023 10:36 8,7 C 8,3 C 5,0 C 85 % 1002,2 hPa 0,0 l/m 0 min 0 min 122 W/m 16,1 km/h (3 Bft) 97,83 %
13.04.2023 10:38 8,7 C 8,9 C 5,0 C 85 % 1002,2 hPa 0,0 l/m 0 min 0 min 152 W/m 12,9 km/h (3 Bft) 95,74 %
13.04.2023 10:40 8,7 C 8,9 C 5,0 C 85 % 1002,2 hPa 0,0 l/m 0 min 0 min 189 W/m 16,1 km/h (3 Bft) 97,87 %
13.04.2023 10:42 8,8 C 8,9 C 5,6 C 85 % 1002,3 hPa 0,0 l/m 0 min 0 min 188 W/m 12,9 km/h (3 Bft) 95,74 %
13.04.2023 10:44 8,8 C 8,9 C 5,6 C 85 % 1002,3 hPa 0,0 l/m 0 min 0 min 175 W/m 19,3 km/h (3 Bft) 95,74 %
13.04.2023 10:46 8,8 C 9,4 C 5,6 C 85 % 1002,4 hPa 0,0 l/m 0 min 0 min 174 W/m 12,9 km/h (3 Bft) 95,74 %
13.04.2023 10:48 8,9 C 8,9 C 5,6 C 85 % 1002,3 hPa 0,0 l/m 0 min 0 min 162 W/m 19,3 km/h (3 Bft) 95,74 %
13.04.2023 10:50 8,9 C 8,9 C 5,6 C 84 % 1002,4 hPa 0,0 l/m 0 min 0 min 141 W/m 19,3 km/h (3 Bft) 95,65 %
13.04.2023 10:52 8,9 C 8,9 C 5,6 C 84 % 1002,4 hPa 0,0 l/m 0 min 0 min 140 W/m 22,5 km/h (4 Bft) 95,74 %
13.04.2023 10:54 9,0 C 8,9 C 5,6 C 83 % 1002,4 hPa 0,0 l/m 0 min 0 min 170 W/m 25,7 km/h (4 Bft) 95,74 %
13.04.2023 10:56 9,1 C 9,4 C 5,6 C 83 % 1002,5 hPa 0,0 l/m 0 min 0 min 192 W/m 25,7 km/h (4 Bft) 95,74 %
13.04.2023 10:58 9,1 C 9,4 C 5,6 C 83 % 1002,4 hPa 0,0 l/m 0 min 0 min 237 W/m 9,7 km/h (2 Bft) 95,74 %
13.04.2023 11:00 9,2 C 10,0 C 6,1 C 83 % 1002,4 hPa 0,0 l/m 2 min 0 min 321 W/m 25,7 km/h (4 Bft) 97,87 %
13.04.2023 11:02 9,2 C 10,0 C 6,1 C 83 % 1002,4 hPa 0,0 l/m 2 min 0 min 312 W/m 22,5 km/h (4 Bft) 97,83 %
13.04.2023 11:04 9,3 C 10,6 C 6,7 C 83 % 1002,4 hPa 0,0 l/m 2 min 0 min 315 W/m 16,1 km/h (3 Bft) 95,83 %
13.04.2023 11:06 9,4 C 11,1 C 6,7 C 82 % 1002,4 hPa 0,0 l/m 2 min 0 min 329 W/m 22,5 km/h (4 Bft) 97,87 %
13.04.2023 11:08 9,6 C 11,7 C 7,2 C 82 % 1002,5 hPa 0,0 l/m 2 min 0 min 377 W/m 19,3 km/h (3 Bft) 97,87 %
13.04.2023 11:10 9,7 C 11,7 C 7,2 C 82 % 1002,5 hPa 0,0 l/m 2 min 0 min 385 W/m 19,3 km/h (3 Bft) 97,87 %
13.04.2023 11:12 9,8 C 11,7 C 7,2 C 81 % 1002,5 hPa 0,0 l/m 2 min 0 min 394 W/m 22,5 km/h (4 Bft) 97,87 %
13.04.2023 11:14 9,9 C 11,7 C 7,2 C 80 % 1002,4 hPa 0,0 l/m 2 min 0 min 394 W/m 22,5 km/h (4 Bft) 97,87 %
13.04.2023 11:16 9,9 C 11,1 C 7,2 C 80 % 1002,5 hPa 0,0 l/m 2 min 0 min 373 W/m 25,7 km/h (4 Bft) 100,00 %
13.04.2023 11:18 10,0 C 10,6 C 7,2 C 79 % 1002,5 hPa 0,0 l/m 0 min 0 min 244 W/m 22,5 km/h (4 Bft) 100,00 %
13.04.2023 11:20 10,0 C 10,0 C 6,7 C 79 % 1002,6 hPa 0,0 l/m 0 min 0 min 170 W/m 29,0 km/h (5 Bft) 100,00 %
13.04.2023 11:22 9,9 C 10,0 C 6,7 C 79 % 1002,6 hPa 0,0 l/m 0 min 0 min 163 W/m 16,1 km/h (3 Bft) 97,87 %
13.04.2023 11:24 9,9 C 10,6 C 6,7 C 79 % 1002,7 hPa 0,0 l/m 0 min 0 min 228 W/m 16,1 km/h (3 Bft) 100,00 %
13.04.2023 11:26 10,0 C 10,6 C 6,7 C 79 % 1002,7 hPa 0,0 l/m 0 min 0 min 229 W/m 25,7 km/h (4 Bft) 97,87 %
13.04.2023 11:28 10,0 C 10,0 C 6,7 C 79 % 1002,7 hPa 0,0 l/m 0 min 0 min 182 W/m 22,5 km/h (4 Bft) 100,00 %
13.04.2023 11:30 10,0 C 10,0 C 6,7 C 79 % 1002,7 hPa 0,0 l/m 0 min 0 min 152 W/m 12,9 km/h (3 Bft) 100,00 %
13.04.2023 11:32 10,0 C 10,0 C 6,7 C 79 % 1002,8 hPa 0,0 l/m 0 min 0 min 158 W/m 22,5 km/h (4 Bft) 100,00 %
13.04.2023 11:34 10,0 C 10,0 C 6,7 C 79 % 1002,8 hPa 0,0 l/m 0 min 0 min 191 W/m 29,0 km/h (5 Bft) 100,00 %
13.04.2023 11:36 9,9 C 11,1 C 6,7 C 79 % 1002,8 hPa 0,0 l/m 0 min 0 min 287 W/m 38,6 km/h (5 Bft) 100,00 %
13.04.2023 11:38 10,0 C 11,1 C 7,2 C 79 % 1002,8 hPa 0,0 l/m 2 min 0 min 463 W/m 32,2 km/h (5 Bft) 97,87 %
13.04.2023 11:40 10,1 C 11,1 C 7,2 C 79 % 1002,8 hPa 0,0 l/m 2 min 0 min 337 W/m 12,9 km/h (3 Bft) 100,00 %
13.04.2023 11:42 10,1 C 11,7 C 7,2 C 80 % 1002,8 hPa 0,0 l/m 2 min 0 min 356 W/m 25,7 km/h (4 Bft) 100,00 %
13.04.2023 11:44 10,2 C 11,7 C 7,2 C 79 % 1002,8 hPa 0,0 l/m 2 min 0 min 350 W/m 19,3 km/h (3 Bft) 100,00 %
13.04.2023 11:46 10,2 C 11,7 C 7,8 C 79 % 1002,8 hPa 0,0 l/m 2 min 0 min 329 W/m 16,1 km/h (3 Bft) 97,87 %
13.04.2023 11:48 10,3 C 11,7 C 7,8 C 79 % 1002,9 hPa 0,0 l/m 0 min 0 min 296 W/m 19,3 km/h (3 Bft) 100,00 %
13.04.2023 11:50 10,3 C 11,1 C 7,2 C 78 % 1002,9 hPa 0,0 l/m 0 min 0 min 252 W/m 19,3 km/h (3 Bft) 100,00 %
13.04.2023 11:52 10,3 C 10,6 C 7,2 C 78 % 1002,9 hPa 0,0 l/m 0 min 0 min 177 W/m 25,7 km/h (4 Bft) 100,00 %
13.04.2023 11:54 10,3 C 10,6 C 6,7 C 78 % 1002,9 hPa 0,0 l/m 0 min 0 min 161 W/m 12,9 km/h (3 Bft) 100,00 %
13.04.2023 11:56 10,3 C 10,6 C 6,7 C 78 % 1003,0 hPa 0,0 l/m 0 min 0 min 163 W/m 12,9 km/h (3 Bft) 100,00 %
13.04.2023 11:58 10,2 C 10,0 C 6,7 C 78 % 1003,0 hPa 0,0 l/m 0 min 0 min 164 W/m 25,7 km/h (4 Bft) 97,87 %
13.04.2023 12:00 10,2 C 10,0 C 6,7 C 78 % 1003,1 hPa 0,0 l/m 0 min 0 min 132 W/m 25,7 km/h (4 Bft) 97,87 %
13.04.2023 12:02 10,1 C 10,0 C 6,7 C 77 % 1003,0 hPa 0,0 l/m 0 min 0 min 129 W/m 22,5 km/h (4 Bft) 93,62 %
13.04.2023 12:04 10,1 C 10,0 C 6,7 C 78 % 1003,0 hPa 0,0 l/m 0 min 0 min 181 W/m 12,9 km/h (3 Bft) 97,87 %
13.04.2023 12:07 10,1 C 10,0 C 6,7 C 78 % 1003,2 hPa 0,0 l/m 0 min 0 min 208 W/m 16,1 km/h (3 Bft) 98,59 %
13.04.2023 12:08 10,1 C 10,0 C 6,7 C 78 % 1003,2 hPa 0,0 l/m 0 min 0 min 177 W/m 19,3 km/h (3 Bft) 95,65 %
13.04.2023 12:12 10,1 C 9,4 C 6,1 C 77 % 1003,3 hPa 0,0 l/m 0 min 0 min 116 W/m 16,1 km/h (3 Bft) 98,18 %
13.04.2023 12:14 10,1 C 9,4 C 6,1 C 78 % 1003,3 hPa 0,0 l/m 0 min 0 min 100 W/m 12,9 km/h (3 Bft) 97,96 %
13.04.2023 12:16 10,1 C 10,0 C 6,1 C 78 % 1003,3 hPa 0,0 l/m 0 min 0 min 135 W/m 12,9 km/h (3 Bft) 97,87 %
13.04.2023 12:18 10,1 C 10,0 C 6,1 C 78 % 1003,3 hPa 0,0 l/m 0 min 0 min 169 W/m 16,1 km/h (3 Bft) 97,87 %
13.04.2023 12:20 10,1 C 10,0 C 6,1 C 78 % 1003,4 hPa 0,0 l/m 0 min 0 min 165 W/m 12,9 km/h (3 Bft) 93,62 %
13.04.2023 12:22 10,1 C 10,0 C 6,7 C 78 % 1003,4 hPa 0,0 l/m 0 min 0 min 166 W/m 25,7 km/h (4 Bft) 97,87 %
13.04.2023 12:24 10,1 C 10,0 C 6,1 C 78 % 1003,4 hPa 0,0 l/m 0 min 0 min 167 W/m 12,9 km/h (3 Bft) 95,83 %
13.04.2023 12:26 10,1 C 10,0 C 6,7 C 78 % 1003,5 hPa 0,0 l/m 0 min 0 min 167 W/m 16,1 km/h (3 Bft) 97,87 %
13.04.2023 12:28 10,1 C 10,0 C 6,7 C 78 % 1003,5 hPa 0,0 l/m 0 min 0 min 212 W/m 22,5 km/h (4 Bft) 95,74 %
13.04.2023 12:30 10,1 C 10,6 C 6,7 C 78 % 1003,5 hPa 0,0 l/m 0 min 0 min 278 W/m 12,9 km/h (3 Bft) 97,83 %
13.04.2023 12:32 10,2 C 10,6 C 6,7 C 78 % 1003,5 hPa 0,0 l/m 0 min 0 min 278 W/m 16,1 km/h (3 Bft) 93,62 %
13.04.2023 12:34 10,3 C 11,1 C 7,2 C 78 % 1003,5 hPa 0,0 l/m 0 min 0 min 283 W/m 12,9 km/h (3 Bft) 95,74 %
13.04.2023 12:36 10,3 C 11,7 C 7,2 C 78 % 1003,6 hPa 0,0 l/m 0 min 0 min 344 W/m 19,3 km/h (3 Bft) 95,74 %
13.04.2023 12:38 10,4 C 12,8 C 7,8 C 78 % 1003,6 hPa 0,0 l/m 2 min 0 min 390 W/m 22,5 km/h (4 Bft) 97,87 %
13.04.2023 12:40 10,6 C 12,2 C 7,8 C 77 % 1003,6 hPa 0,0 l/m 2 min 0 min 388 W/m 19,3 km/h (3 Bft) 95,74 %
13.04.2023 12:42 10,7 C 11,7 C 7,8 C 77 % 1003,7 hPa 0,0 l/m 0 min 0 min 291 W/m 51,5 km/h (7 Bft) 100,00 %
13.04.2023 12:44 10,7 C 11,7 C 7,8 C 76 % 1003,6 hPa 0,0 l/m 0 min 0 min 300 W/m 12,9 km/h (3 Bft) 100,00 %
13.04.2023 12:46 10,7 C 11,7 C 7,8 C 76 % 1003,7 hPa 0,0 l/m 0 min 0 min 266 W/m 12,9 km/h (3 Bft) 97,87 %
13.04.2023 12:48 10,8 C 11,7 C 7,8 C 76 % 1003,7 hPa 0,0 l/m 0 min 0 min 218 W/m 16,1 km/h (3 Bft) 97,87 %
13.04.2023 12:50 10,8 C 11,1 C 7,2 C 76 % 1003,6 hPa 0,0 l/m 0 min 0 min 238 W/m 19,3 km/h (3 Bft) 97,87 %
13.04.2023 12:52 10,8 C 11,1 C 7,2 C 75 % 1003,6 hPa 0,0 l/m 0 min 0 min 221 W/m 16,1 km/h (3 Bft) 97,87 %
13.04.2023 12:54 10,7 C 10,6 C 7,2 C 75 % 1003,7 hPa 0,0 l/m 0 min 0 min 176 W/m 22,5 km/h (4 Bft) 97,92 %
13.04.2023 12:56 10,7 C 10,6 C 7,2 C 74 % 1003,7 hPa 0,0 l/m 0 min 0 min 190 W/m 16,1 km/h (3 Bft) 97,87 %
13.04.2023 12:58 10,7 C 11,1 C 7,2 C 75 % 1003,8 hPa 0,0 l/m 0 min 0 min 296 W/m 16,1 km/h (3 Bft) 97,87 %
13.04.2023 13:00 10,8 C 12,2 C 7,8 C 75 % 1003,8 hPa 0,0 l/m 0 min 0 min 355 W/m 16,1 km/h (3 Bft) 97,87 %
13.04.2023 13:02 10,9 C 12,2 C 7,8 C 75 % 1003,8 hPa 0,0 l/m 2 min 0 min 408 W/m 25,7 km/h (4 Bft) 97,87 %
13.04.2023 13:04 11,0 C 12,2 C 7,8 C 74 % 1003,8 hPa 0,0 l/m 2 min 0 min 379 W/m 16,1 km/h (3 Bft) 97,87 %
13.04.2023 13:06 11,1 C 12,2 C 7,8 C 74 % 1003,9 hPa 0,0 l/m 0 min 0 min 342 W/m 19,3 km/h (3 Bft) 97,83 %
13.04.2023 13:08 11,1 C 11,7 C 7,8 C 72 % 1003,8 hPa 0,0 l/m 0 min 0 min 324 W/m 19,3 km/h (3 Bft) 97,87 %
13.04.2023 13:10 11,1 C 11,7 C 7,8 C 72 % 1003,9 hPa 0,0 l/m 0 min 0 min 313 W/m 16,1 km/h (3 Bft) 97,87 %
13.04.2023 13:12 11,1 C 11,7 C 7,8 C 72 % 1003,9 hPa 0,0 l/m 0 min 0 min 322 W/m 19,3 km/h (3 Bft) 97,87 %
13.04.2023 13:14 11,1 C 12,2 C 7,8 C 72 % 1003,9 hPa 0,0 l/m 2 min 0 min 384 W/m 12,9 km/h (3 Bft) 95,74 %
13.04.2023 13:16 11,2 C 11,7 C 7,8 C 71 % 1003,9 hPa 0,0 l/m 0 min 0 min 327 W/m 19,3 km/h (3 Bft) 97,87 %
13.04.2023 13:18 11,2 C 11,7 C 7,8 C 71 % 1003,8 hPa 0,0 l/m 0 min 0 min 319 W/m 12,9 km/h (3 Bft) 97,83 %
13.04.2023 13:20 11,2 C 12,2 C 7,8 C 72 % 1003,9 hPa 0,0 l/m 0 min 0 min 352 W/m 0,0 km/h (0 Bft) 97,87 %
13.04.2023 13:22 11,3 C 12,8 C 8,3 C 73 % 1003,9 hPa 0,0 l/m 2 min 0 min 417 W/m 9,7 km/h (2 Bft) 95,83 %
13.04.2023 13:24 11,4 C 13,3 C 8,3 C 72 % 1003,9 hPa 0,0 l/m 2 min 0 min 451 W/m 16,1 km/h (3 Bft) 97,87 %
13.04.2023 13:26 11,5 C 12,8 C 8,3 C 72 % 1004,0 hPa 0,0 l/m 2 min 0 min 384 W/m 16,1 km/h (3 Bft) 100,00 %
13.04.2023 13:28 11,6 C 12,8 C 8,3 C 71 % 1004,0 hPa 0,0 l/m 0 min 0 min 341 W/m 12,9 km/h (3 Bft) 100,00 %
13.04.2023 13:30 11,6 C 12,2 C 8,3 C 71 % 1004,0 hPa 0,0 l/m 0 min 0 min 330 W/m 12,9 km/h (3 Bft) 100,00 %
13.04.2023 13:32 11,6 C 12,2 C 8,3 C 70 % 1004,1 hPa 0,0 l/m 0 min 0 min 345 W/m 19,3 km/h (3 Bft) 97,87 %
13.04.2023 13:34 11,6 C 12,2 C 8,3 C 70 % 1004,1 hPa 0,0 l/m 2 min 0 min 366 W/m 16,1 km/h (3 Bft) 97,83 %
13.04.2023 13:36 11,6 C 12,2 C 8,3 C 71 % 1004,1 hPa 0,0 l/m 2 min 0 min 397 W/m 16,1 km/h (3 Bft) 97,87 %
13.04.2023 13:38 11,7 C 12,8 C 8,3 C 71 % 1004,1 hPa 0,0 l/m 2 min 0 min 495 W/m 19,3 km/h (3 Bft) 100,00 %
13.04.2023 13:40 11,7 C 13,9 C 8,3 C 70 % 1004,2 hPa 0,0 l/m 2 min 0 min 698 W/m 19,3 km/h (3 Bft) 100,00 %
13.04.2023 13:42 11,8 C 14,4 C 8,9 C 70 % 1004,2 hPa 0,0 l/m 2 min 0 min 608 W/m 22,5 km/h (4 Bft) 97,87 %
13.04.2023 13:44 11,9 C 15,6 C 8,9 C 70 % 1004,1 hPa 0,0 l/m 2 min 0 min 543 W/m 16,1 km/h (3 Bft) 100,00 %
13.04.2023 13:46 12,0 C 14,4 C 9,4 C 69 % 1004,2 hPa 0,0 l/m 2 min 0 min 540 W/m 22,5 km/h (4 Bft) 95,65 %
13.04.2023 13:48 11,9 C 13,9 C 8,9 C 69 % 1004,3 hPa 0,0 l/m 2 min 0 min 413 W/m 22,5 km/h (4 Bft) 97,87 %
13.04.2023 13:50 12,0 C 15,6 C 8,9 C 69 % 1004,2 hPa 0,0 l/m 2 min 0 min 626 W/m 19,3 km/h (3 Bft) 97,87 %
13.04.2023 13:52 12,1 C 15,6 C 9,4 C 69 % 1004,2 hPa 0,0 l/m 2 min 0 min 841 W/m 9,7 km/h (2 Bft) 97,14 %
13.04.2023 13:54 12,2 C 16,1 C 9,4 C 70 % 1004,2 hPa 0,0 l/m 2 min 0 min 854 W/m 19,3 km/h (3 Bft) 96,61 %
13.04.2023 13:56 12,4 C 17,2 C 9,4 C 69 % 1004,2 hPa 0,0 l/m 2 min 0 min 861 W/m 22,5 km/h (4 Bft) 95,74 %
13.04.2023 13:58 12,6 C 18,3 C 9,4 C 70 % 1004,2 hPa 0,0 l/m 2 min 0 min 907 W/m 12,9 km/h (3 Bft) 97,83 %
13.04.2023 14:00 12,8 C 17,2 C 9,4 C 69 % 1004,2 hPa 0,0 l/m 2 min 0 min 818 W/m 29,0 km/h (5 Bft) 97,22 %
13.04.2023 14:02 12,9 C 17,2 C 9,4 C 68 % 1004,2 hPa 0,0 l/m 0 min 0 min 357 W/m 19,3 km/h (3 Bft) 98,28 %
13.04.2023 14:04 12,9 C 16,7 C 9,4 C 67 % 1004,2 hPa 0,0 l/m 2 min 0 min 382 W/m 19,3 km/h (3 Bft) 97,92 %
13.04.2023 14:06 13,0 C 17,2 C 9,4 C 66 % 1004,2 hPa 0,0 l/m 2 min 0 min 685 W/m 25,7 km/h (4 Bft) 97,87 %
13.04.2023 14:08 13,1 C 17,8 C 9,4 C 67 % 1004,1 hPa 0,0 l/m 2 min 0 min 851 W/m 19,3 km/h (3 Bft) 97,87 %
13.04.2023 14:10 13,1 C 17,2 C 9,4 C 67 % 1004,2 hPa 0,0 l/m 2 min 0 min 907 W/m 19,3 km/h (3 Bft) 97,14 %
13.04.2023 14:12 13,2 C 18,3 C 9,4 C 67 % 1004,2 hPa 0,0 l/m 2 min 0 min 909 W/m 22,5 km/h (4 Bft) 97,87 %
13.04.2023 14:14 13,3 C 18,9 C 9,4 C 66 % 1004,2 hPa 0,0 l/m 2 min 0 min 911 W/m 16,1 km/h (3 Bft) 97,83 %
13.04.2023 14:16 13,3 C 17,2 C 10,0 C 66 % 1004,2 hPa 0,0 l/m 2 min 0 min 648 W/m 16,1 km/h (3 Bft) 95,74 %
13.04.2023 14:18 13,3 C 15,6 C 9,4 C 66 % 1004,2 hPa 0,0 l/m 2 min 0 min 401 W/m 22,5 km/h (4 Bft) 97,87 %
13.04.2023 14:20 13,3 C 14,4 C 9,4 C 65 % 1004,2 hPa 0,0 l/m 0 min 0 min 332 W/m 38,6 km/h (5 Bft) 97,87 %
13.04.2023 14:22 13,2 C 13,9 C 9,4 C 65 % 1004,2 hPa 0,0 l/m 0 min 0 min 239 W/m 19,3 km/h (3 Bft) 97,87 %
13.04.2023 14:24 13,1 C 13,3 C 8,9 C 66 % 1004,2 hPa 0,0 l/m 0 min 0 min 206 W/m 9,7 km/h (2 Bft) 97,87 %
13.04.2023 14:26 12,9 C 14,4 C 8,9 C 66 % 1004,3 hPa 0,0 l/m 0 min 0 min 174 W/m 19,3 km/h (3 Bft) 95,65 %
13.04.2023 14:28 12,8 C 15,0 C 8,9 C 66 % 1004,2 hPa 0,0 l/m 0 min 0 min 174 W/m 16,1 km/h (3 Bft) 95,74 %
13.04.2023 14:30 12,9 C 16,1 C 8,9 C 67 % 1004,2 hPa 0,0 l/m 0 min 0 min 252 W/m 9,7 km/h (2 Bft) 91,49 %
13.04.2023 14:32 12,9 C 16,7 C 9,4 C 68 % 1004,2 hPa 0,0 l/m 2 min 0 min 643 W/m 16,1 km/h (3 Bft) 95,74 %
13.04.2023 14:34 13,1 C 18,3 C 9,4 C 68 % 1004,3 hPa 0,0 l/m 2 min 0 min 792 W/m 19,3 km/h (3 Bft) 93,62 %
13.04.2023 14:36 13,2 C 17,8 C 9,4 C 67 % 1004,2 hPa 0,0 l/m 2 min 0 min 801 W/m 29,0 km/h (5 Bft) 95,74 %
13.04.2023 14:38 13,2 C 17,8 C 9,4 C 65 % 1004,3 hPa 0,0 l/m 2 min 0 min 772 W/m 32,2 km/h (5 Bft) 95,74 %
13.04.2023 14:40 13,2 C 18,3 C 9,4 C 66 % 1004,4 hPa 0,0 l/m 2 min 0 min 825 W/m 25,7 km/h (4 Bft) 93,48 %
13.04.2023 14:42 13,2 C 18,3 C 9,4 C 64 % 1004,4 hPa 0,0 l/m 2 min 0 min 820 W/m 25,7 km/h (4 Bft) 93,62 %
13.04.2023 14:44 13,3 C 18,3 C 9,4 C 65 % 1004,4 hPa 0,0 l/m 2 min 0 min 762 W/m 22,5 km/h (4 Bft) 95,74 %
13.04.2023 14:46 13,4 C 19,4 C 9,4 C 64 % 1004,4 hPa 0,0 l/m 2 min 0 min 764 W/m 16,1 km/h (3 Bft) 93,62 %
13.04.2023 14:48 13,6 C 19,4 C 9,4 C 66 % 1004,4 hPa 0,0 l/m 2 min 0 min 831 W/m 9,7 km/h (2 Bft) 95,74 %
13.04.2023 14:50 13,8 C 20,0 C 10,0 C 65 % 1004,5 hPa 0,0 l/m 2 min 0 min 862 W/m 12,9 km/h (3 Bft) 95,74 %
13.04.2023 14:52 14,0 C 20,0 C 10,0 C 66 % 1004,5 hPa 0,0 l/m 2 min 0 min 917 W/m 9,7 km/h (2 Bft) 95,74 %
13.04.2023 14:54 14,1 C 19,4 C 10,0 C 64 % 1004,5 hPa 0,0 l/m 2 min 0 min 961 W/m 25,7 km/h (4 Bft) 93,62 %
13.04.2023 14:56 14,1 C 17,8 C 10,0 C 63 % 1004,5 hPa 0,0 l/m 2 min 0 min 965 W/m 16,1 km/h (3 Bft) 95,74 %
13.04.2023 14:58 14,1 C 16,7 C 10,0 C 63 % 1004,5 hPa 0,0 l/m 2 min 0 min 576 W/m 16,1 km/h (3 Bft) 91,49 %
13.04.2023 15:00 14,1 C 15,6 C 10,0 C 62 % 1004,5 hPa 0,0 l/m 0 min 0 min 212 W/m 16,1 km/h (3 Bft) 91,49 %
13.04.2023 15:02 13,9 C 14,4 C 10,0 C 62 % 1004,5 hPa 0,0 l/m 0 min 0 min 186 W/m 22,5 km/h (4 Bft) 93,48 %
13.04.2023 15:04 13,8 C 13,9 C 10,0 C 63 % 1004,6 hPa 0,0 l/m 0 min 0 min 198 W/m 19,3 km/h (3 Bft) 93,62 %
13.04.2023 15:06 13,8 C 15,0 C 10,0 C 63 % 1004,6 hPa 0,0 l/m 0 min 0 min 207 W/m 22,5 km/h (4 Bft) 95,00 %
13.04.2023 15:08 13,7 C 14,4 C 9,4 C 62 % 1004,6 hPa 0,0 l/m 0 min 0 min 198 W/m 19,3 km/h (3 Bft) 91,43 %
13.04.2023 15:10 13,6 C 13,9 C 9,4 C 62 % 1004,6 hPa 0,0 l/m 0 min 0 min 183 W/m 22,5 km/h (4 Bft) 97,87 %
13.04.2023 15:12 13,6 C 16,1 C 9,4 C 61 % 1004,6 hPa 0,0 l/m 2 min 0 min 384 W/m 19,3 km/h (3 Bft) 93,62 %
13.04.2023 15:14 13,7 C 16,1 C 10,0 C 61 % 1004,6 hPa 0,0 l/m 2 min 0 min 872 W/m 25,7 km/h (4 Bft) 97,87 %
13.04.2023 15:16 13,7 C 15,0 C 9,4 C 61 % 1004,6 hPa 0,0 l/m 2 min 0 min 454 W/m 12,9 km/h (3 Bft) 97,83 %
13.04.2023 15:18 13,7 C 14,4 C 9,4 C 63 % 1004,6 hPa 0,0 l/m 0 min 0 min 168 W/m 9,7 km/h (2 Bft) 97,87 %
13.04.2023 15:20 13,7 C 15,0 C 9,4 C 63 % 1004,6 hPa 0,0 l/m 0 min 0 min 171 W/m 12,9 km/h (3 Bft) 97,87 %
13.04.2023 15:22 13,7 C 15,6 C 9,4 C 62 % 1004,6 hPa 0,0 l/m 2 min 0 min 491 W/m 12,9 km/h (3 Bft) 93,62 %
13.04.2023 15:24 13,7 C 14,4 C 9,4 C 61 % 1004,7 hPa 0,0 l/m 0 min 0 min 304 W/m 16,1 km/h (3 Bft) 97,87 %
13.04.2023 15:26 13,6 C 15,6 C 9,4 C 62 % 1004,7 hPa 0,0 l/m 0 min 0 min 200 W/m 16,1 km/h (3 Bft) 97,87 %
13.04.2023 15:28 13,7 C 17,8 C 10,0 C 63 % 1004,7 hPa 0,0 l/m 2 min 0 min 770 W/m 22,5 km/h (4 Bft) 97,83 %
13.04.2023 15:30 13,9 C 18,9 C 10,0 C 62 % 1004,7 hPa 0,0 l/m 2 min 0 min 793 W/m 25,7 km/h (4 Bft) 97,87 %
13.04.2023 15:32 14,1 C 19,4 C 10,0 C 62 % 1004,8 hPa 0,0 l/m 2 min 0 min 779 W/m 19,3 km/h (3 Bft) 97,87 %
13.04.2023 15:34 14,3 C 20,0 C 10,6 C 62 % 1004,8 hPa 0,0 l/m 2 min 0 min 775 W/m 16,1 km/h (3 Bft) 97,87 %
13.04.2023 15:36 14,4 C 20,0 C 10,6 C 60 % 1004,8 hPa 0,0 l/m 2 min 0 min 779 W/m 16,1 km/h (3 Bft) 97,87 %
13.04.2023 15:38 14,5 C 19,4 C 10,0 C 60 % 1004,8 hPa 0,0 l/m 2 min 0 min 808 W/m 19,3 km/h (3 Bft) 100,00 %
13.04.2023 15:40 14,6 C 18,9 C 10,6 C 59 % 1004,9 hPa 0,0 l/m 2 min 0 min 816 W/m 29,0 km/h (5 Bft) 100,00 %
13.04.2023 15:42 14,6 C 18,9 C 10,6 C 58 % 1004,8 hPa 0,0 l/m 2 min 0 min 788 W/m 29,0 km/h (5 Bft) 100,00 %
13.04.2023 15:44 14,6 C 19,4 C 10,6 C 59 % 1004,8 hPa 0,0 l/m 2 min 0 min 748 W/m 16,1 km/h (3 Bft) 100,00 %
13.04.2023 15:46 14,7 C 18,9 C 10,6 C 58 % 1004,9 hPa 0,0 l/m 2 min 0 min 733 W/m 25,7 km/h (4 Bft) 97,87 %
13.04.2023 15:48 14,7 C 18,3 C 10,6 C 58 % 1004,9 hPa 0,0 l/m 2 min 0 min 719 W/m 19,3 km/h (3 Bft) 100,00 %
13.04.2023 15:50 14,8 C 18,9 C 10,6 C 59 % 1004,9 hPa 0,0 l/m 2 min 0 min 718 W/m 25,7 km/h (4 Bft) 100,00 %
13.04.2023 15:52 14,8 C 18,3 C 10,6 C 59 % 1004,9 hPa 0,0 l/m 2 min 0 min 724 W/m 19,3 km/h (3 Bft) 100,00 %
13.04.2023 15:54 14,9 C 18,9 C 10,6 C 59 % 1004,9 hPa 0,0 l/m 2 min 0 min 704 W/m 12,9 km/h (3 Bft) 100,00 %
13.04.2023 15:56 15,0 C 18,9 C 10,6 C 59 % 1004,9 hPa 0,0 l/m 2 min 0 min 654 W/m 16,1 km/h (3 Bft) 100,00 %
13.04.2023 15:58 15,0 C 18,3 C 10,6 C 58 % 1004,9 hPa 0,0 l/m 2 min 0 min 669 W/m 25,7 km/h (4 Bft) 97,87 %
13.04.2023 16:00 14,9 C 18,3 C 10,6 C 58 % 1004,9 hPa 0,0 l/m 2 min 0 min 665 W/m 16,1 km/h (3 Bft) 100,00 %
13.04.2023 16:02 14,9 C 18,9 C 10,6 C 58 % 1004,9 hPa 0,0 l/m 2 min 0 min 675 W/m 12,9 km/h (3 Bft) 95,74 %
13.04.2023 16:04 15,1 C 19,4 C 10,6 C 58 % 1005,0 hPa 0,0 l/m 2 min 0 min 710 W/m 16,1 km/h (3 Bft) 100,00 %
13.04.2023 16:06 15,2 C 18,9 C 10,6 C 57 % 1004,9 hPa 0,0 l/m 2 min 0 min 688 W/m 16,1 km/h (3 Bft) 100,00 %
13.04.2023 16:08 15,2 C 18,9 C 10,6 C 56 % 1004,9 hPa 0,0 l/m 2 min 0 min 689 W/m 12,9 km/h (3 Bft) 100,00 %
13.04.2023 16:10 15,3 C 18,9 C 11,1 C 56 % 1004,9 hPa 0,0 l/m 2 min 0 min 698 W/m 16,1 km/h (3 Bft) 100,00 %
13.04.2023 16:12 15,3 C 18,3 C 11,1 C 54 % 1004,9 hPa 0,0 l/m 2 min 0 min 698 W/m 25,7 km/h (4 Bft) 100,00 %
13.04.2023 16:14 15,3 C 18,9 C 11,1 C 54 % 1004,9 hPa 0,0 l/m 2 min 0 min 742 W/m 25,7 km/h (4 Bft) 97,87 %
13.04.2023 16:16 15,3 C 18,9 C 11,1 C 54 % 1004,9 hPa 0,0 l/m 2 min 0 min 763 W/m 22,5 km/h (4 Bft) 100,00 %
13.04.2023 16:18 15,2 C 18,9 C 10,6 C 54 % 1004,9 hPa 0,0 l/m 2 min 0 min 746 W/m 22,5 km/h (4 Bft) 100,00 %
13.04.2023 16:20 15,2 C 18,3 C 11,1 C 54 % 1005,0 hPa 0,0 l/m 2 min 0 min 740 W/m 32,2 km/h (5 Bft) 97,87 %
13.04.2023 16:22 15,2 C 18,9 C 11,1 C 55 % 1005,0 hPa 0,0 l/m 2 min 0 min 720 W/m 19,3 km/h (3 Bft) 97,87 %
13.04.2023 16:24 15,3 C 18,9 C 11,1 C 55 % 1005,0 hPa 0,0 l/m 2 min 0 min 714 W/m 19,3 km/h (3 Bft) 100,00 %
13.04.2023 16:26 15,3 C 18,9 C 10,6 C 55 % 1005,1 hPa 0,0 l/m 2 min 0 min 698 W/m 25,7 km/h (4 Bft) 100,00 %
13.04.2023 16:28 15,4 C 18,9 C 11,1 C 55 % 1005,1 hPa 0,0 l/m 2 min 0 min 700 W/m 22,5 km/h (4 Bft) 100,00 %
13.04.2023 16:30 15,4 C 18,9 C 11,1 C 55 % 1005,1 hPa 0,0 l/m 2 min 0 min 678 W/m 16,1 km/h (3 Bft) 100,00 %
13.04.2023 16:32 15,5 C 18,3 C 11,1 C 55 % 1005,1 hPa 0,0 l/m 2 min 0 min 576 W/m 29,0 km/h (5 Bft) 97,87 %
13.04.2023 16:34 15,3 C 17,2 C 10,6 C 55 % 1005,1 hPa 0,0 l/m 2 min 0 min 312 W/m 19,3 km/h (3 Bft) 100,00 %
13.04.2023 16:36 15,1 C 16,1 C 10,6 C 54 % 1005,1 hPa 0,0 l/m 0 min 0 min 237 W/m 25,7 km/h (4 Bft) 100,00 %
13.04.2023 16:38 14,8 C 15,6 C 10,6 C 55 % 1005,2 hPa 0,0 l/m 0 min 0 min 269 W/m 16,1 km/h (3 Bft) 100,00 %
13.04.2023 16:40 14,6 C 16,7 C 10,6 C 56 % 1005,1 hPa 0,0 l/m 2 min 0 min 401 W/m 19,3 km/h (3 Bft) 100,00 %
13.04.2023 16:42 14,7 C 17,8 C 10,6 C 56 % 1005,1 hPa 0,0 l/m 2 min 0 min 702 W/m 19,3 km/h (3 Bft) 100,00 %
13.04.2023 16:44 14,7 C 17,2 C 10,6 C 56 % 1005,1 hPa 0,0 l/m 2 min 0 min 570 W/m 12,9 km/h (3 Bft) 100,00 %
13.04.2023 16:46 14,7 C 16,1 C 10,6 C 57 % 1005,1 hPa 0,0 l/m 0 min 0 min 154 W/m 12,9 km/h (3 Bft) 100,00 %
13.04.2023 16:48 14,7 C 15,6 C 10,0 C 56 % 1005,1 hPa 0,0 l/m 0 min 0 min 155 W/m 12,9 km/h (3 Bft) 100,00 %
13.04.2023 16:50 14,7 C 16,7 C 10,0 C 57 % 1005,0 hPa 0,0 l/m 2 min 0 min 269 W/m 16,1 km/h (3 Bft) 100,00 %
13.04.2023 16:52 14,7 C 17,2 C 10,6 C 56 % 1005,1 hPa 0,0 l/m 2 min 0 min 597 W/m 16,1 km/h (3 Bft) 100,00 %
13.04.2023 16:54 14,7 C 17,8 C 10,6 C 55 % 1005,1 hPa 0,0 l/m 2 min 0 min 576 W/m 22,5 km/h (4 Bft) 100,00 %
13.04.2023 16:56 14,7 C 16,7 C 10,6 C 55 % 1005,1 hPa 0,0 l/m 2 min 0 min 554 W/m 29,0 km/h (5 Bft) 97,83 %
13.04.2023 16:58 14,8 C 16,7 C 10,6 C 54 % 1005,0 hPa 0,0 l/m 2 min 0 min 309 W/m 16,1 km/h (3 Bft) 100,00 %
13.04.2023 17:00 14,7 C 16,7 C 10,6 C 53 % 1005,1 hPa 0,0 l/m 2 min 0 min 498 W/m 22,5 km/h (4 Bft) 97,87 %
13.04.2023 17:02 14,7 C 17,2 C 10,6 C 54 % 1005,1 hPa 0,0 l/m 2 min 0 min 482 W/m 16,1 km/h (3 Bft) 97,87 %
13.04.2023 17:04 14,8 C 17,8 C 10,6 C 56 % 1005,1 hPa 0,0 l/m 2 min 0 min 468 W/m 12,9 km/h (3 Bft) 97,56 %
13.04.2023 17:06 14,9 C 17,8 C 10,6 C 55 % 1005,2 hPa 0,0 l/m 2 min 0 min 480 W/m 16,1 km/h (3 Bft) 98,44 %
13.04.2023 17:08 14,8 C 17,2 C 10,6 C 54 % 1005,2 hPa 0,0 l/m 2 min 0 min 451 W/m 16,1 km/h (3 Bft) 96,67 %
13.04.2023 17:10 14,8 C 17,2 C 10,6 C 55 % 1005,2 hPa 0,0 l/m 2 min 0 min 470 W/m 12,9 km/h (3 Bft) 97,87 %
13.04.2023 17:12 14,8 C 17,8 C 10,6 C 56 % 1005,2 hPa 0,0 l/m 2 min 0 min 515 W/m 12,9 km/h (3 Bft) 97,87 %
13.04.2023 17:14 14,9 C 17,8 C 10,6 C 56 % 1005,2 hPa 0,0 l/m 2 min 0 min 489 W/m 12,9 km/h (3 Bft) 97,83 %
13.04.2023 17:16 14,9 C 17,8 C 10,6 C 55 % 1005,2 hPa 0,0 l/m 2 min 0 min 491 W/m 29,0 km/h (5 Bft) 97,87 %
13.04.2023 17:18 14,9 C 17,2 C 10,6 C 54 % 1005,3 hPa 0,0 l/m 2 min 0 min 490 W/m 12,9 km/h (3 Bft) 96,43 %
13.04.2023 17:20 15,1 C 18,3 C 10,6 C 55 % 1005,3 hPa 0,0 l/m 2 min 0 min 480 W/m 9,7 km/h (2 Bft) 97,83 %
13.04.2023 17:22 15,2 C 18,3 C 11,1 C 55 % 1005,3 hPa 0,0 l/m 2 min 0 min 431 W/m 16,1 km/h (3 Bft) 97,87 %
13.04.2023 17:24 15,1 C 17,2 C 10,6 C 54 % 1005,4 hPa 0,0 l/m 2 min 0 min 382 W/m 19,3 km/h (3 Bft) 97,87 %
13.04.2023 17:26 15,0 C 17,2 C 10,6 C 54 % 1005,4 hPa 0,0 l/m 2 min 0 min 384 W/m 16,1 km/h (3 Bft) 95,74 %
13.04.2023 17:28 14,9 C 17,8 C 10,6 C 56 % 1005,4 hPa 0,0 l/m 2 min 0 min 416 W/m 12,9 km/h (3 Bft) 95,74 %
13.04.2023 17:30 14,9 C 17,2 C 10,6 C 55 % 1005,4 hPa 0,0 l/m 2 min 0 min 412 W/m 16,1 km/h (3 Bft) 95,74 %
13.04.2023 17:32 14,8 C 17,2 C 10,6 C 54 % 1005,4 hPa 0,0 l/m 2 min 0 min 398 W/m 12,9 km/h (3 Bft) 93,62 %
13.04.2023 17:34 14,8 C 17,8 C 10,6 C 54 % 1005,4 hPa 0,0 l/m 2 min 0 min 428 W/m 16,1 km/h (3 Bft) 95,65 %
13.04.2023 17:36 14,8 C 17,2 C 10,6 C 54 % 1005,4 hPa 0,0 l/m 2 min 0 min 418 W/m 22,5 km/h (4 Bft) 95,74 %
13.04.2023 17:38 14,8 C 17,8 C 10,6 C 55 % 1005,4 hPa 0,0 l/m 2 min 0 min 424 W/m 12,9 km/h (3 Bft) 95,74 %
13.04.2023 17:40 14,8 C 18,3 C 10,6 C 55 % 1005,4 hPa 0,0 l/m 2 min 0 min 447 W/m 25,7 km/h (4 Bft) 95,74 %
13.04.2023 17:42 14,8 C 18,3 C 10,6 C 56 % 1005,4 hPa 0,0 l/m 2 min 0 min 426 W/m 12,9 km/h (3 Bft) 95,74 %
13.04.2023 17:44 14,8 C 17,8 C 10,6 C 54 % 1005,4 hPa 0,0 l/m 2 min 0 min 427 W/m 19,3 km/h (3 Bft) 95,74 %
13.04.2023 17:46 14,8 C 17,8 C 10,6 C 55 % 1005,4 hPa 0,0 l/m 2 min 0 min 437 W/m 16,1 km/h (3 Bft) 97,83 %
13.04.2023 17:48 14,9 C 18,3 C 10,6 C 55 % 1005,4 hPa 0,0 l/m 2 min 0 min 434 W/m 12,9 km/h (3 Bft) 95,74 %
13.04.2023 17:50 14,9 C 18,9 C 10,6 C 54 % 1005,4 hPa 0,0 l/m 2 min 0 min 459 W/m 12,9 km/h (3 Bft) 97,87 %
13.04.2023 17:52 14,9 C 18,3 C 10,6 C 54 % 1005,4 hPa 0,0 l/m 2 min 0 min 476 W/m 16,1 km/h (3 Bft) 93,62 %
13.04.2023 17:54 14,9 C 17,8 C 10,6 C 53 % 1005,5 hPa 0,0 l/m 2 min 0 min 472 W/m 16,1 km/h (3 Bft) 93,62 %
13.04.2023 17:56 14,9 C 17,8 C 10,6 C 53 % 1005,5 hPa 0,0 l/m 2 min 0 min 447 W/m 12,9 km/h (3 Bft) 97,87 %
13.04.2023 17:58 14,9 C 17,2 C 10,6 C 53 % 1005,5 hPa 0,0 l/m 2 min 0 min 423 W/m 12,9 km/h (3 Bft) 97,83 %
13.04.2023 18:00 14,8 C 16,7 C 10,6 C 53 % 1005,6 hPa 0,0 l/m 2 min 0 min 270 W/m 12,9 km/h (3 Bft) 97,87 %
13.04.2023 18:02 14,8 C 16,7 C 10,6 C 53 % 1005,6 hPa 0,0 l/m 2 min 0 min 200 W/m 16,1 km/h (3 Bft) 95,74 %
13.04.2023 18:04 14,8 C 16,7 C 10,6 C 52 % 1005,6 hPa 0,0 l/m 2 min 0 min 364 W/m 12,9 km/h (3 Bft) 97,87 %
13.04.2023 18:07 14,7 C 15,6 C 10,6 C 54 % 1005,6 hPa 0,0 l/m 3 min 0 min 213 W/m 12,9 km/h (3 Bft) 98,57 %
13.04.2023 18:08 14,7 C 15,0 C 10,0 C 53 % 1005,6 hPa 0,0 l/m 0 min 0 min 143 W/m 12,9 km/h (3 Bft) 95,83 %
13.04.2023 18:12 14,5 C 14,4 C 10,0 C 54 % 1005,6 hPa 0,0 l/m 0 min 0 min 129 W/m 12,9 km/h (3 Bft) 98,00 %
13.04.2023 18:14 14,3 C 13,9 C 9,4 C 53 % 1005,6 hPa 0,0 l/m 0 min 0 min 123 W/m 12,9 km/h (3 Bft) 93,62 %
13.04.2023 18:16 14,3 C 13,9 C 9,4 C 54 % 1005,6 hPa 0,0 l/m 0 min 0 min 121 W/m 6,4 km/h (2 Bft) 97,87 %
13.04.2023 18:18 14,3 C 13,9 C 9,4 C 54 % 1005,6 hPa 0,0 l/m 0 min 0 min 123 W/m 9,7 km/h (2 Bft) 95,65 %
13.04.2023 18:20 14,2 C 13,9 C 9,4 C 53 % 1005,6 hPa 0,0 l/m 0 min 0 min 127 W/m 12,9 km/h (3 Bft) 95,74 %
13.04.2023 18:22 14,1 C 15,6 C 9,4 C 54 % 1005,7 hPa 0,0 l/m 2 min 0 min 238 W/m 12,9 km/h (3 Bft) 97,87 %
13.04.2023 18:24 14,2 C 16,7 C 10,0 C 55 % 1005,6 hPa 0,0 l/m 2 min 0 min 359 W/m 12,9 km/h (3 Bft) 95,74 %
13.04.2023 18:26 14,3 C 16,1 C 10,0 C 54 % 1005,6 hPa 0,0 l/m 2 min 0 min 268 W/m 9,7 km/h (2 Bft) 97,87 %
13.04.2023 18:28 14,3 C 15,6 C 10,0 C 54 % 1005,7 hPa 0,0 l/m 2 min 0 min 149 W/m 12,9 km/h (3 Bft) 95,74 %
13.04.2023 18:30 14,3 C 14,4 C 10,0 C 54 % 1005,7 hPa 0,0 l/m 2 min 0 min 162 W/m 9,7 km/h (2 Bft) 97,83 %
13.04.2023 18:32 14,3 C 14,4 C 10,0 C 55 % 1005,7 hPa 0,0 l/m 2 min 0 min 171 W/m 12,9 km/h (3 Bft) 97,87 %
13.04.2023 18:34 14,3 C 14,4 C 10,0 C 55 % 1005,7 hPa 0,0 l/m 2 min 0 min 168 W/m 3,2 km/h (1 Bft) 97,87 %
13.04.2023 18:36 14,3 C 15,0 C 10,0 C 55 % 1005,7 hPa 0,0 l/m 2 min 0 min 190 W/m 16,1 km/h (3 Bft) 97,87 %
13.04.2023 18:38 14,3 C 16,1 C 10,0 C 54 % 1005,8 hPa 0,0 l/m 2 min 0 min 311 W/m 12,9 km/h (3 Bft) 97,87 %
13.04.2023 18:40 14,3 C 17,2 C 10,0 C 54 % 1005,8 hPa 0,0 l/m 2 min 0 min 298 W/m 6,4 km/h (2 Bft) 97,87 %
13.04.2023 18:42 14,3 C 17,2 C 10,0 C 54 % 1005,8 hPa 0,0 l/m 2 min 0 min 270 W/m 12,9 km/h (3 Bft) 95,65 %
13.04.2023 18:44 14,3 C 16,7 C 10,0 C 54 % 1005,8 hPa 0,0 l/m 2 min 0 min 171 W/m 6,4 km/h (2 Bft) 97,87 %
13.04.2023 18:46 14,4 C 16,1 C 10,0 C 54 % 1005,8 hPa 0,0 l/m 0 min 0 min 97 W/m 6,4 km/h (2 Bft) 97,87 %
13.04.2023 18:48 14,6 C 15,6 C 10,0 C 54 % 1005,9 hPa 0,0 l/m 0 min 0 min 95 W/m 3,2 km/h (1 Bft) 97,87 %
13.04.2023 18:50 14,6 C 15,6 C 10,6 C 53 % 1005,9 hPa 0,0 l/m 0 min 0 min 97 W/m 9,7 km/h (2 Bft) 95,74 %
13.04.2023 18:52 14,7 C 15,0 C 10,0 C 52 % 1005,9 hPa 0,0 l/m 0 min 0 min 101 W/m 9,7 km/h (2 Bft) 97,87 %
13.04.2023 18:54 14,7 C 14,4 C 10,0 C 50 % 1005,9 hPa 0,0 l/m 0 min 0 min 108 W/m 9,7 km/h (2 Bft) 97,87 %
13.04.2023 18:56 14,6 C 14,4 C 10,0 C 50 % 1005,9 hPa 0,0 l/m 0 min 0 min 111 W/m 12,9 km/h (3 Bft) 97,83 %
13.04.2023 18:58 14,6 C 14,4 C 10,0 C 51 % 1005,9 hPa 0,0 l/m 2 min 0 min 110 W/m 3,2 km/h (1 Bft) 97,87 %
13.04.2023 19:00 14,6 C 14,4 C 10,0 C 51 % 1006,0 hPa 0,0 l/m 0 min 0 min 99 W/m 9,7 km/h (2 Bft) 97,87 %
13.04.2023 19:02 14,6 C 14,4 C 10,0 C 50 % 1005,9 hPa 0,0 l/m 0 min 0 min 86 W/m 12,9 km/h (3 Bft) 97,87 %
13.04.2023 19:04 14,6 C 13,9 C 10,0 C 51 % 1006,0 hPa 0,0 l/m 0 min 0 min 80 W/m 6,4 km/h (2 Bft) 100,00 %
13.04.2023 19:06 14,6 C 13,9 C 10,0 C 51 % 1006,0 hPa 0,0 l/m 0 min 0 min 77 W/m 12,9 km/h (3 Bft) 100,00 %
13.04.2023 19:08 14,4 C 13,9 C 9,4 C 50 % 1006,1 hPa 0,0 l/m 0 min 0 min 73 W/m 16,1 km/h (3 Bft) 100,00 %
13.04.2023 19:10 14,3 C 13,9 C 9,4 C 50 % 1006,0 hPa 0,0 l/m 0 min 0 min 69 W/m 12,9 km/h (3 Bft) 100,00 %
13.04.2023 19:12 14,3 C 13,3 C 9,4 C 49 % 1006,0 hPa 0,0 l/m 0 min 0 min 68 W/m 16,1 km/h (3 Bft) 97,87 %
13.04.2023 19:14 14,3 C 13,3 C 9,4 C 49 % 1006,1 hPa 0,0 l/m 0 min 0 min 69 W/m 16,1 km/h (3 Bft) 100,00 %
13.04.2023 19:16 14,2 C 13,3 C 9,4 C 49 % 1006,1 hPa 0,0 l/m 0 min 0 min 66 W/m 19,3 km/h (3 Bft) 97,87 %
13.04.2023 19:18 14,1 C 13,3 C 9,4 C 49 % 1006,2 hPa 0,0 l/m 0 min 0 min 57 W/m 12,9 km/h (3 Bft) 100,00 %
13.04.2023 19:20 14,0 C 13,3 C 9,4 C 49 % 1006,2 hPa 0,0 l/m 0 min 0 min 48 W/m 6,4 km/h (2 Bft) 100,00 %
13.04.2023 19:22 13,9 C 12,8 C 8,9 C 49 % 1006,3 hPa 0,0 l/m 0 min 0 min 41 W/m 3,2 km/h (1 Bft) 95,74 %
13.04.2023 19:24 13,8 C 12,8 C 8,9 C 49 % 1006,3 hPa 0,0 l/m 0 min 0 min 40 W/m 6,4 km/h (2 Bft) 100,00 %
13.04.2023 19:26 13,8 C 12,8 C 8,9 C 49 % 1006,3 hPa 0,0 l/m 0 min 0 min 38 W/m 6,4 km/h (2 Bft) 100,00 %
13.04.2023 19:28 13,7 C 12,8 C 8,9 C 49 % 1006,4 hPa 0,0 l/m 0 min 0 min 36 W/m 6,4 km/h (2 Bft) 100,00 %
13.04.2023 19:30 13,6 C 12,8 C 8,9 C 49 % 1006,4 hPa 0,0 l/m 0 min 0 min 33 W/m 12,9 km/h (3 Bft) 97,87 %
13.04.2023 19:32 13,5 C 12,8 C 8,9 C 50 % 1006,4 hPa 0,0 l/m 0 min 0 min 30 W/m 3,2 km/h (1 Bft) 100,00 %
13.04.2023 19:34 13,5 C 12,8 C 8,9 C 50 % 1006,4 hPa 0,0 l/m 0 min 0 min 28 W/m 9,7 km/h (2 Bft) 97,87 %
13.04.2023 19:36 13,4 C 12,2 C 8,9 C 51 % 1006,4 hPa 0,0 l/m 0 min 0 min 28 W/m 6,4 km/h (2 Bft) 97,87 %
13.04.2023 19:38 13,4 C 12,2 C 8,3 C 51 % 1006,5 hPa 0,0 l/m 0 min 0 min 26 W/m 6,4 km/h (2 Bft) 97,87 %
13.04.2023 19:40 13,3 C 12,2 C 8,3 C 51 % 1006,5 hPa 0,0 l/m 0 min 0 min 25 W/m 9,7 km/h (2 Bft) 97,83 %
13.04.2023 19:42 13,2 C 12,2 C 8,3 C 51 % 1006,5 hPa 0,0 l/m 0 min 0 min 22 W/m 6,4 km/h (2 Bft) 97,87 %
13.04.2023 19:44 13,2 C 12,2 C 8,3 C 52 % 1006,6 hPa 0,0 l/m 0 min 0 min 21 W/m 6,4 km/h (2 Bft) 95,65 %
13.04.2023 19:46 13,1 C 11,7 C 8,3 C 52 % 1006,6 hPa 0,0 l/m 0 min 0 min 20 W/m 3,2 km/h (1 Bft) 95,74 %
13.04.2023 19:48 13,1 C 11,7 C 7,8 C 52 % 1006,6 hPa 0,0 l/m 0 min 0 min 19 W/m 6,4 km/h (2 Bft) 95,74 %
13.04.2023 19:50 13,0 C 11,7 C 7,8 C 52 % 1006,6 hPa 0,0 l/m 0 min 0 min 18 W/m 3,2 km/h (1 Bft) 95,74 %
13.04.2023 19:52 12,9 C 11,7 C 7,8 C 53 % 1006,6 hPa 0,0 l/m 0 min 0 min 17 W/m 3,2 km/h (1 Bft) 93,62 %
13.04.2023 19:54 12,8 C 11,7 C 7,8 C 53 % 1006,6 hPa 0,0 l/m 0 min 0 min 16 W/m 6,4 km/h (2 Bft) 95,74 %
13.04.2023 19:56 12,8 C 11,7 C 7,8 C 53 % 1006,7 hPa 0,0 l/m 0 min 0 min 14 W/m 3,2 km/h (1 Bft) 95,74 %
13.04.2023 19:58 12,7 C 11,1 C 7,8 C 53 % 1006,7 hPa 0,0 l/m 0 min 0 min 14 W/m 3,2 km/h (1 Bft) 95,65 %
13.04.2023 20:00 12,7 C 11,1 C 7,2 C 54 % 1006,7 hPa 0,0 l/m 0 min 0 min 13 W/m 3,2 km/h (1 Bft) 95,74 %
13.04.2023 20:02 12,6 C 11,1 C 7,2 C 55 % 1006,7 hPa 0,0 l/m 0 min 0 min 12 W/m 3,2 km/h (1 Bft) 95,74 %
13.04.2023 20:04 12,5 C 11,1 C 7,2 C 54 % 1006,7 hPa 0,0 l/m 0 min 0 min 12 W/m 3,2 km/h (1 Bft) 93,88 %
13.04.2023 20:06 12,4 C 11,1 C 7,2 C 54 % 1006,8 hPa 0,0 l/m 0 min 0 min 11 W/m 3,2 km/h (1 Bft) 91,49 %
13.04.2023 20:08 12,4 C 11,1 C 7,2 C 54 % 1006,8 hPa 0,0 l/m 0 min 0 min 11 W/m 0,0 km/h (0 Bft) 93,62 %
13.04.2023 20:10 12,3 C 10,6 C 6,7 C 55 % 1006,8 hPa 0,0 l/m 0 min 0 min 9 W/m 0,0 km/h (0 Bft) 95,65 %
13.04.2023 20:12 12,3 C 10,6 C 6,7 C 57 % 1006,8 hPa 0,0 l/m 0 min 0 min 9 W/m 0,0 km/h (0 Bft) 95,74 %
13.04.2023 20:14 12,3 C 10,6 C 6,7 C 59 % 1006,8 hPa 0,0 l/m 0 min 0 min 7 W/m 0,0 km/h (0 Bft) 97,87 %
13.04.2023 20:16 12,3 C 10,0 C 6,1 C 59 % 1006,9 hPa 0,0 l/m 0 min 0 min 7 W/m 0,0 km/h (0 Bft) 97,87 %
13.04.2023 20:18 12,2 C 10,0 C 6,1 C 58 % 1006,9 hPa 0,0 l/m 0 min 0 min 6 W/m 0,0 km/h (0 Bft) 97,87 %
13.04.2023 20:20 12,1 C 10,0 C 6,1 C 59 % 1007,0 hPa 0,0 l/m 0 min 0 min 5 W/m 0,0 km/h (0 Bft) 95,74 %
13.04.2023 20:22 12,1 C 10,0 C 6,1 C 58 % 1007,0 hPa 0,0 l/m 0 min 0 min 5 W/m 0,0 km/h (0 Bft) 97,83 %
13.04.2023 20:24 12,0 C 10,0 C 5,6 C 58 % 1007,0 hPa 0,0 l/m 0 min 0 min 5 W/m 0,0 km/h (0 Bft) 97,87 %
13.04.2023 20:26 11,9 C 9,4 C 5,6 C 59 % 1007,1 hPa 0,0 l/m 0 min 0 min 2 W/m 0,0 km/h (0 Bft) 95,74 %
13.04.2023 20:28 11,9 C 9,4 C 5,6 C 62 % 1007,1 hPa 0,0 l/m 0 min 0 min 0 W/m 0,0 km/h (0 Bft) 97,87 %
13.04.2023 20:30 11,9 C 9,4 C 5,6 C 63 % 1007,1 hPa 0,0 l/m 0 min 0 min 0 W/m 0,0 km/h (0 Bft) 97,87 %
13.04.2023 20:32 11,8 C 9,4 C 5,6 C 63 % 1007,1 hPa 0,0 l/m 0 min 0 min 0 W/m 0,0 km/h (0 Bft) 95,74 %
13.04.2023 20:34 11,8 C 9,4 C 5,6 C 62 % 1007,1 hPa 0,0 l/m 0 min 0 min 0 W/m 0,0 km/h (0 Bft) 95,65 %
13.04.2023 20:36 11,7 C 9,4 C 5,0 C 61 % 1007,2 hPa 0,0 l/m 0 min 0 min 0 W/m 0,0 km/h (0 Bft) 97,87 %
13.04.2023 20:38 11,6 C 9,4 C 5,0 C 60 % 1007,2 hPa 0,0 l/m 0 min 0 min 0 W/m 0,0 km/h (0 Bft) 97,87 %
13.04.2023 20:40 11,4 C 9,4 C 5,0 C 59 % 1007,2 hPa 0,0 l/m 0 min 0 min 0 W/m 0,0 km/h (0 Bft) 97,87 %
13.04.2023 20:42 11,4 C 9,4 C 5,6 C 59 % 1007,3 hPa 0,0 l/m 0 min 0 min 0 W/m 3,2 km/h (1 Bft) 97,87 %
13.04.2023 20:44 11,3 C 9,4 C 5,6 C 59 % 1007,3 hPa 0,0 l/m 0 min 0 min 0 W/m 3,2 km/h (1 Bft) 95,74 %
13.04.2023 20:46 11,2 C 9,4 C 5,6 C 59 % 1007,4 hPa 0,0 l/m 0 min 0 min 0 W/m 3,2 km/h (1 Bft) 97,83 %
13.04.2023 20:48 11,2 C 9,4 C 5,6 C 60 % 1007,4 hPa 0,0 l/m 0 min 0 min 0 W/m 3,2 km/h (1 Bft) 97,87 %
13.04.2023 20:50 11,1 C 9,4 C 5,6 C 61 % 1007,5 hPa 0,0 l/m 0 min 0 min 0 W/m 6,4 km/h (2 Bft) 95,74 %
13.04.2023 20:52 11,1 C 9,4 C 5,6 C 60 % 1007,5 hPa 0,0 l/m 0 min 0 min 0 W/m 6,4 km/h (2 Bft) 97,87 %
13.04.2023 20:54 11,1 C 9,4 C 6,1 C 60 % 1007,5 hPa 0,0 l/m 0 min 0 min 0 W/m 6,4 km/h (2 Bft) 95,74 %
13.04.2023 20:56 11,0 C 9,4 C 6,1 C 59 % 1007,5 hPa 0,0 l/m 0 min 0 min 0 W/m 3,2 km/h (1 Bft) 96,36 %
13.04.2023 20:58 11,0 C 9,4 C 6,1 C 60 % 1007,5 hPa 0,0 l/m 0 min 0 min 0 W/m 3,2 km/h (1 Bft) 97,87 %
13.04.2023 21:00 10,9 C 9,4 C 6,1 C 60 % 1007,6 hPa 0,0 l/m 0 min 0 min 0 W/m 3,2 km/h (1 Bft) 100,00 %
13.04.2023 21:02 10,9 C 9,4 C 5,6 C 60 % 1007,5 hPa 0,0 l/m 0 min 0 min 0 W/m 3,2 km/h (1 Bft) 94,00 %
13.04.2023 21:04 10,8 C 9,4 C 5,6 C 60 % 1007,6 hPa 0,0 l/m 0 min 0 min 0 W/m 3,2 km/h (1 Bft) 100,00 %
13.04.2023 21:06 10,8 C 9,4 C 5,6 C 60 % 1007,6 hPa 0,0 l/m 0 min 0 min 0 W/m 3,2 km/h (1 Bft) 98,31 %
13.04.2023 21:08 10,8 C 9,4 C 5,6 C 60 % 1007,7 hPa 0,0 l/m 0 min 0 min 0 W/m 3,2 km/h (1 Bft) 100,00 %
13.04.2023 21:10 10,7 C 9,4 C 5,6 C 60 % 1007,7 hPa 0,0 l/m 0 min 0 min 0 W/m 6,4 km/h (2 Bft) 100,00 %
13.04.2023 21:12 10,7 C 9,4 C 5,6 C 61 % 1007,7 hPa 0,0 l/m 0 min 0 min 0 W/m 3,2 km/h (1 Bft) 100,00 %
13.04.2023 21:14 10,7 C 9,4 C 5,6 C 61 % 1007,8 hPa 0,0 l/m 0 min 0 min 0 W/m 3,2 km/h (1 Bft) 100,00 %
13.04.2023 21:16 10,6 C 9,4 C 5,6 C 61 % 1007,8 hPa 0,0 l/m 0 min 0 min 0 W/m 0,0 km/h (0 Bft) 100,00 %
13.04.2023 21:18 10,6 C 9,4 C 5,6 C 61 % 1007,8 hPa 0,0 l/m 0 min 0 min 0 W/m 0,0 km/h (0 Bft) 97,87 %
13.04.2023 21:20 10,6 C 8,9 C 5,0 C 61 % 1007,8 hPa 0,0 l/m 0 min 0 min 0 W/m 3,2 km/h (1 Bft) 100,00 %
13.04.2023 21:22 10,5 C 8,9 C 5,0 C 61 % 1007,9 hPa 0,0 l/m 0 min 0 min 0 W/m 0,0 km/h (0 Bft) 100,00 %
13.04.2023 21:24 10,5 C 8,9 C 5,0 C 61 % 1007,9 hPa 0,0 l/m 0 min 0 min 0 W/m 0,0 km/h (0 Bft) 97,83 %
13.04.2023 21:26 10,4 C 8,9 C 5,0 C 62 % 1007,9 hPa 0,0 l/m 0 min 0 min 0 W/m 0,0 km/h (0 Bft) 100,00 %
13.04.2023 21:28 10,4 C 8,3 C 4,4 C 63 % 1007,9 hPa 0,0 l/m 0 min 0 min 0 W/m 0,0 km/h (0 Bft) 97,87 %
13.04.2023 21:30 10,4 C 8,3 C 4,4 C 64 % 1008,0 hPa 0,0 l/m 0 min 0 min 0 W/m 0,0 km/h (0 Bft) 95,74 %
13.04.2023 21:32 10,3 C 8,3 C 4,4 C 64 % 1008,0 hPa 0,0 l/m 0 min 0 min 0 W/m 3,2 km/h (1 Bft) 93,62 %
13.04.2023 21:34 10,3 C 8,3 C 4,4 C 64 % 1008,0 hPa 0,0 l/m 0 min 0 min 0 W/m 3,2 km/h (1 Bft) 95,74 %
13.04.2023 21:36 10,3 C 7,8 C 4,4 C 64 % 1008,0 hPa 0,0 l/m 0 min 0 min 0 W/m 3,2 km/h (1 Bft) 95,65 %
13.04.2023 21:38 10,2 C 7,8 C 3,9 C 64 % 1008,0 hPa 0,0 l/m 0 min 0 min 0 W/m 0,0 km/h (0 Bft) 97,87 %
13.04.2023 21:40 10,1 C 8,3 C 3,9 C 63 % 1008,0 hPa 0,0 l/m 0 min 0 min 0 W/m 3,2 km/h (1 Bft) 97,87 %
13.04.2023 21:42 10,1 C 7,8 C 3,9 C 63 % 1008,1 hPa 0,0 l/m 0 min 0 min 0 W/m 3,2 km/h (1 Bft) 95,74 %
13.04.2023 21:44 10,0 C 7,8 C 3,9 C 64 % 1008,2 hPa 0,0 l/m 0 min 0 min 0 W/m 0,0 km/h (0 Bft) 97,87 %
13.04.2023 21:46 9,9 C 7,8 C 3,9 C 64 % 1008,2 hPa 0,0 l/m 0 min 0 min 0 W/m 0,0 km/h (0 Bft) 97,87 %
13.04.2023 21:48 9,9 C 7,8 C 3,9 C 65 % 1008,2 hPa 0,0 l/m 0 min 0 min 0 W/m 0,0 km/h (0 Bft) 97,83 %
13.04.2023 21:50 9,8 C 7,8 C 3,9 C 65 % 1008,2 hPa 0,0 l/m 0 min 0 min 0 W/m 3,2 km/h (1 Bft) 97,87 %
13.04.2023 21:52 9,8 C 7,8 C 3,9 C 66 % 1008,2 hPa 0,0 l/m 0 min 0 min 0 W/m 0,0 km/h (0 Bft) 95,74 %
13.04.2023 21:54 9,7 C 7,8 C 3,9 C 65 % 1008,3 hPa 0,0 l/m 0 min 0 min 0 W/m 3,2 km/h (1 Bft) 97,87 %
13.04.2023 21:56 9,7 C 7,8 C 3,9 C 66 % 1008,3 hPa 0,0 l/m 0 min 0 min 0 W/m 3,2 km/h (1 Bft) 100,00 %
13.04.2023 21:58 9,6 C 7,8 C 3,9 C 66 % 1008,3 hPa 0,0 l/m 0 min 0 min 0 W/m 0,0 km/h (0 Bft) 100,00 %
13.04.2023 22:00 9,6 C 8,3 C 3,9 C 66 % 1008,4 hPa 0,0 l/m 0 min 0 min 0 W/m 3,2 km/h (1 Bft) 100,00 %
13.04.2023 22:02 9,6 C 8,3 C 3,9 C 66 % 1008,4 hPa 0,0 l/m 0 min 0 min 0 W/m 3,2 km/h (1 Bft) 97,87 %
13.04.2023 22:04 9,5 C 8,3 C 3,9 C 66 % 1008,4 hPa 0,0 l/m 0 min 0 min 0 W/m 3,2 km/h (1 Bft) 100,00 %
13.04.2023 22:06 9,4 C 7,8 C 3,9 C 67 % 1008,4 hPa 0,0 l/m 0 min 0 min 0 W/m 3,2 km/h (1 Bft) 97,87 %
13.04.2023 22:08 9,4 C 7,8 C 3,9 C 67 % 1008,4 hPa 0,0 l/m 0 min 0 min 0 W/m 3,2 km/h (1 Bft) 100,00 %
13.04.2023 22:10 9,4 C 7,8 C 3,9 C 68 % 1008,4 hPa 0,0 l/m 0 min 0 min 0 W/m 3,2 km/h (1 Bft) 97,87 %
13.04.2023 22:12 9,3 C 7,8 C 3,9 C 68 % 1008,4 hPa 0,0 l/m 0 min 0 min 0 W/m 3,2 km/h (1 Bft) 97,83 %
13.04.2023 22:14 9,3 C 7,8 C 3,9 C 68 % 1008,4 hPa 0,0 l/m 0 min 0 min 0 W/m 3,2 km/h (1 Bft) 100,00 %
13.04.2023 22:16 9,3 C 7,8 C 3,9 C 68 % 1008,4 hPa 0,0 l/m 0 min 0 min 0 W/m 3,2 km/h (1 Bft) 97,87 %
13.04.2023 22:18 9,2 C 7,8 C 3,9 C 69 % 1008,4 hPa 0,0 l/m 0 min 0 min 0 W/m 3,2 km/h (1 Bft) 96,08 %
13.04.2023 22:20 9,2 C 7,8 C 3,9 C 69 % 1008,4 hPa 0,0 l/m 0 min 0 min 0 W/m 0,0 km/h (0 Bft) 100,00 %
13.04.2023 22:22 9,2 C 7,8 C 3,9 C 69 % 1008,4 hPa 0,0 l/m 0 min 0 min 0 W/m 3,2 km/h (1 Bft) 100,00 %
13.04.2023 22:24 9,1 C 7,8 C 3,9 C 69 % 1008,5 hPa 0,0 l/m 0 min 0 min 0 W/m 3,2 km/h (1 Bft) 95,74 %
13.04.2023 22:26 9,1 C 7,8 C 3,9 C 69 % 1008,5 hPa 0,0 l/m 0 min 0 min 0 W/m 3,2 km/h (1 Bft) 97,83 %
13.04.2023 22:28 9,1 C 7,8 C 3,9 C 70 % 1008,5 hPa 0,0 l/m 0 min 0 min 0 W/m 3,2 km/h (1 Bft) 97,87 %
13.04.2023 22:30 9,1 C 7,8 C 3,9 C 70 % 1008,5 hPa 0,0 l/m 0 min 0 min 0 W/m 3,2 km/h (1 Bft) 93,62 %
13.04.2023 22:32 9,0 C 7,8 C 3,9 C 70 % 1008,5 hPa 0,0 l/m 0 min 0 min 0 W/m 3,2 km/h (1 Bft) 97,87 %
13.04.2023 22:34 9,0 C 7,8 C 3,9 C 70 % 1008,6 hPa 0,0 l/m 0 min 0 min 0 W/m 3,2 km/h (1 Bft) 97,87 %
13.04.2023 22:36 8,9 C 7,8 C 3,9 C 70 % 1008,6 hPa 0,0 l/m 0 min 0 min 0 W/m 3,2 km/h (1 Bft) 95,74 %
13.04.2023 22:38 8,9 C 7,8 C 3,9 C 71 % 1008,6 hPa 0,0 l/m 0 min 0 min 0 W/m 9,7 km/h (2 Bft) 97,83 %
13.04.2023 22:40 8,9 C 7,8 C 3,9 C 71 % 1008,6 hPa 0,0 l/m 0 min 0 min 0 W/m 6,4 km/h (2 Bft) 91,49 %
13.04.2023 22:42 8,9 C 7,8 C 3,9 C 71 % 1008,7 hPa 0,0 l/m 0 min 0 min 0 W/m 3,2 km/h (1 Bft) 95,74 %
13.04.2023 22:44 8,9 C 7,8 C 3,9 C 71 % 1008,7 hPa 0,0 l/m 0 min 0 min 0 W/m 3,2 km/h (1 Bft) 95,74 %
13.04.2023 22:46 8,8 C 7,8 C 3,9 C 71 % 1008,6 hPa 0,0 l/m 0 min 0 min 0 W/m 3,2 km/h (1 Bft) 97,87 %
13.04.2023 22:48 8,8 C 7,8 C 3,9 C 72 % 1008,7 hPa 0,0 l/m 0 min 0 min 0 W/m 3,2 km/h (1 Bft) 95,74 %
13.04.2023 22:50 8,8 C 7,8 C 3,9 C 72 % 1008,7 hPa 0,0 l/m 0 min 0 min 0 W/m 3,2 km/h (1 Bft) 97,83 %
13.04.2023 22:52 8,8 C 7,8 C 3,9 C 72 % 1008,8 hPa 0,0 l/m 0 min 0 min 0 W/m 3,2 km/h (1 Bft) 97,22 %
13.04.2023 22:54 8,8 C 7,8 C 4,4 C 72 % 1008,8 hPa 0,0 l/m 0 min 0 min 0 W/m 16,1 km/h (3 Bft) 97,83 %
13.04.2023 22:56 8,8 C 7,8 C 3,9 C 72 % 1008,8 hPa 0,0 l/m 0 min 0 min 0 W/m 3,2 km/h (1 Bft) 100,00 %
13.04.2023 22:58 8,7 C 7,8 C 3,9 C 72 % 1008,8 hPa 0,0 l/m 0 min 0 min 0 W/m 3,2 km/h (1 Bft) 100,00 %
13.04.2023 23:00 8,7 C 7,8 C 4,4 C 73 % 1008,8 hPa 0,0 l/m 0 min 0 min 0 W/m 3,2 km/h (1 Bft) 97,87 %
13.04.2023 23:02 8,7 C 7,8 C 4,4 C 73 % 1008,8 hPa 0,0 l/m 0 min 0 min 0 W/m 3,2 km/h (1 Bft) 100,00 %
13.04.2023 23:04 8,7 C 7,8 C 4,4 C 73 % 1008,8 hPa 0,0 l/m 0 min 0 min 0 W/m 6,4 km/h (2 Bft) 100,00 %
13.04.2023 23:06 8,6 C 7,2 C 4,4 C 73 % 1008,8 hPa 0,0 l/m 0 min 0 min 0 W/m 9,7 km/h (2 Bft) 94,83 %
13.04.2023 23:08 8,6 C 7,2 C 4,4 C 73 % 1008,8 hPa 0,0 l/m 0 min 0 min 0 W/m 6,4 km/h (2 Bft) 94,29 %
13.04.2023 23:10 8,6 C 7,2 C 4,4 C 73 % 1008,9 hPa 0,0 l/m 0 min 0 min 0 W/m 6,4 km/h (2 Bft) 95,74 %
13.04.2023 23:12 8,6 C 7,2 C 4,4 C 73 % 1008,9 hPa 0,0 l/m 0 min 0 min 0 W/m 6,4 km/h (2 Bft) 93,62 %
13.04.2023 23:14 8,6 C 7,2 C 3,9 C 73 % 1008,8 hPa 0,0 l/m 0 min 0 min 0 W/m 6,4 km/h (2 Bft) 93,62 %
13.04.2023 23:16 8,5 C 7,2 C 3,9 C 73 % 1008,8 hPa 0,0 l/m 0 min 0 min 0 W/m 3,2 km/h (1 Bft) 95,74 %
13.04.2023 23:18 8,5 C 7,2 C 3,9 C 73 % 1008,8 hPa 0,0 l/m 0 min 0 min 0 W/m 3,2 km/h (1 Bft) 93,48 %
13.04.2023 23:20 8,4 C 7,2 C 3,9 C 73 % 1008,9 hPa 0,0 l/m 0 min 0 min 0 W/m 3,2 km/h (1 Bft) 95,74 %
13.04.2023 23:22 8,4 C 7,2 C 3,9 C 74 % 1008,9 hPa 0,0 l/m 0 min 0 min 0 W/m 3,2 km/h (1 Bft) 91,49 %
13.04.2023 23:24 8,3 C 7,2 C 3,9 C 74 % 1008,9 hPa 0,0 l/m 0 min 0 min 0 W/m 6,4 km/h (2 Bft) 95,74 %
13.04.2023 23:26 8,3 C 7,2 C 3,9 C 74 % 1009,0 hPa 0,0 l/m 0 min 0 min 0 W/m 3,2 km/h (1 Bft) 95,74 %
13.04.2023 23:28 8,3 C 7,2 C 3,9 C 74 % 1009,0 hPa 0,0 l/m 0 min 0 min 0 W/m 6,4 km/h (2 Bft) 95,74 %
13.04.2023 23:30 8,3 C 7,2 C 3,9 C 74 % 1009,0 hPa 0,0 l/m 0 min 0 min 0 W/m 6,4 km/h (2 Bft) 95,74 %
13.04.2023 23:32 8,2 C 7,2 C 3,9 C 74 % 1009,1 hPa 0,0 l/m 0 min 0 min 0 W/m 6,4 km/h (2 Bft) 97,83 %
13.04.2023 23:34 8,2 C 7,2 C 3,9 C 74 % 1009,1 hPa 0,0 l/m 0 min 0 min 0 W/m 3,2 km/h (1 Bft) 93,62 %
13.04.2023 23:36 8,2 C 7,2 C 3,9 C 74 % 1009,1 hPa 0,0 l/m 0 min 0 min 0 W/m 9,7 km/h (2 Bft) 97,87 %
13.04.2023 23:38 8,2 C 7,2 C 3,9 C 74 % 1009,2 hPa 0,0 l/m 0 min 0 min 0 W/m 6,4 km/h (2 Bft) 95,74 %
13.04.2023 23:40 8,2 C 7,2 C 3,9 C 74 % 1009,2 hPa 0,0 l/m 0 min 0 min 0 W/m 6,4 km/h (2 Bft) 95,74 %
13.04.2023 23:42 8,2 C 7,2 C 3,9 C 73 % 1009,2 hPa 0,0 l/m 0 min 0 min 0 W/m 6,4 km/h (2 Bft) 97,83 %
13.04.2023 23:44 8,2 C 7,2 C 3,9 C 73 % 1009,2 hPa 0,0 l/m 0 min 0 min 0 W/m 6,4 km/h (2 Bft) 97,87 %
13.04.2023 23:46 8,1 C 7,2 C 3,9 C 74 % 1009,2 hPa 0,0 l/m 0 min 0 min 0 W/m 6,4 km/h (2 Bft) 97,87 %
13.04.2023 23:48 8,1 C 7,2 C 3,9 C 74 % 1009,2 hPa 0,0 l/m 0 min 0 min 0 W/m 6,4 km/h (2 Bft) 98,00 %
13.04.2023 23:50 8,1 C 7,2 C 3,9 C 74 % 1009,2 hPa 0,0 l/m 0 min 0 min 0 W/m 6,4 km/h (2 Bft) 95,74 %
13.04.2023 23:52 8,1 C 6,7 C 3,9 C 74 % 1009,2 hPa 0,0 l/m 0 min 0 min 0 W/m 3,2 km/h (1 Bft) 97,87 %
13.04.2023 23:54 8,1 C 6,7 C 3,9 C 74 % 1009,2 hPa 0,0 l/m 0 min 0 min 0 W/m 6,4 km/h (2 Bft) 95,74 %
13.04.2023 23:56 8,1 C 6,7 C 3,3 C 75 % 1009,2 hPa 0,0 l/m 0 min 0 min 0 W/m 6,4 km/h (2 Bft) 97,83 %
13.04.2023 23:58 8,0 C 6,7 C 3,3 C 75 % 1009,1 hPa 0,0 l/m 0 min 0 min 0 W/m 6,4 km/h (2 Bft) 97,87 %
_ Min-Zeit 00:42 00:00 00:14 19:12 03:14 - - - - 13:20 00:02
Minimum _ 5,5 C 5,0 C 1,1 C 49 % 997,1 hPa - - - - 0,0 km/h (0 Bft) 10,00 %
_ Max-Zeit 16:32 14:50 16:10 00:00 23:38 02:28 18:07 02:17 14:56 05:58 00:56
Maximum _ 15,5 C 20,0 C 11,1 C 93 % 1009,2 hPa 0,2 l/m 3 min 5 min 965 W/m 61,2 km/h
SW (7 Bft)
100,00 %
Durchschnitt _ 9,8 C 10,0 C 5,5 C 75 % 1002,6 hPa #0,6 l/m #5:25 h #2:58 h 286 W/m 19,1 km/h (3 Bft) 97,15 %
© 2023 W. Hausmann